Private Wetterstation Wechselburg
Wetterdaten: Samstag, 21.10.2017
Datum Zeit Temp. +2m Bodentemp. Temp.+5cm Temp. Wind Windchill X Diff Temp. Feuchte +2m Feuchte +5cm Sonnenschein Luftdruck Regen Wind Richtung Richtung Sonnenschein Taupunkt Windchill Windben
21.10.2017 00:00 11,6 C 14,0 C 10,5 C 11,0 C 9,9 C 0,0 C 79 % 84 % 0 % 1014,2 hPa 0,0 l/m 0,2 km/h (0 Bft) SW 225 0 min 8,1 C 9,9 C 0,0 km/h (0 Bft)
21.10.2017 00:05 11,5 C 14,0 C 10,3 C 10,8 C 9,5 C 0,0 C 79 % 84 % 0 % 1014,5 hPa 0,0 l/m 0,0 km/h (0 Bft) SW 225 0 min 8,0 C 9,5 C 0,0 km/h (0 Bft)
21.10.2017 00:10 11,3 C 14,1 C 10,0 C 10,6 C 9,2 C 0,0 C 79 % 85 % 0 % 1014,5 hPa 0,0 l/m 0,0 km/h (0 Bft) S-SW 202 0 min 7,8 C 9,2 C 0,0 km/h (0 Bft)
21.10.2017 00:15 10,9 C 14,1 C 9,9 C 10,2 C 8,8 C 0,0 C 79 % 85 % 0 % 1014,5 hPa 0,0 l/m 0,0 km/h (0 Bft) S-SW 202 0 min 7,4 C 8,8 C 0,0 km/h (0 Bft)
21.10.2017 00:20 10,8 C 14,2 C 9,7 C 10,1 C 8,7 C 0,0 C 79 % 85 % 0 % 1014,5 hPa 0,0 l/m 0,0 km/h (0 Bft) W-SW 247 0 min 7,3 C 8,7 C 0,0 km/h (0 Bft)
21.10.2017 00:25 10,5 C 14,2 C 9,5 C 9,8 C 8,5 C 0,0 C 80 % 85 % 0 % 1014,5 hPa 0,0 l/m 0,0 km/h (0 Bft) W-SW 247 0 min 7,2 C 8,5 C 0,0 km/h (0 Bft)
21.10.2017 00:30 10,4 C 14,2 C 9,4 C 9,7 C 8,4 C 0,0 C 81 % 85 % 0 % 1014,5 hPa 0,0 l/m 0,0 km/h (0 Bft) W-SW 247 0 min 7,3 C 8,4 C 0,0 km/h (0 Bft)
21.10.2017 00:35 10,2 C 14,1 C 9,2 C 9,6 C 8,3 C 0,0 C 81 % 85 % 0 % 1014,5 hPa 0,0 l/m 0,0 km/h (0 Bft) W-SW 247 0 min 7,1 C 8,3 C 0,0 km/h (0 Bft)
21.10.2017 00:40 10,2 C 14,2 C 9,1 C 9,6 C 8,3 C 0,0 C 82 % 86 % 0 % 1014,5 hPa 0,0 l/m 0,0 km/h (0 Bft) S-SO 157 0 min 7,3 C 8,3 C 0,0 km/h (0 Bft)
21.10.2017 00:45 10,1 C 14,2 C 9,1 C 9,5 C 8,4 C 0,0 C 82 % 85 % 0 % 1014,4 hPa 0,0 l/m 0,0 km/h (0 Bft) S-SO 157 0 min 7,2 C 8,4 C 0,0 km/h (0 Bft)
21.10.2017 00:50 9,9 C 14,1 C 9,1 C 9,4 C 8,3 C 0,0 C 82 % 85 % 0 % 1014,4 hPa 0,0 l/m 0,0 km/h (0 Bft) S-SO 157 0 min 7,0 C 8,3 C 0,0 km/h (0 Bft)
21.10.2017 00:55 9,7 C 14,1 C 8,8 C 9,2 C 8,1 C 0,0 C 82 % 85 % 0 % 1014,4 hPa 0,0 l/m 0,0 km/h (0 Bft) S 180 0 min 6,8 C 8,1 C 0,0 km/h (0 Bft)
21.10.2017 01:00 9,6 C 14,1 C 8,7 C 9,1 C 8,0 C 0,0 C 82 % 86 % 0 % 1014,4 hPa 0,0 l/m 0,0 km/h (0 Bft) S 180 0 min 6,7 C 8,0 C 0,0 km/h (0 Bft)
21.10.2017 01:05 9,4 C 14,0 C 8,6 C 8,9 C 7,9 C 0,0 C 83 % 85 % 0 % 1014,7 hPa 0,0 l/m 0,0 km/h (0 Bft) SW 225 0 min 6,7 C 7,9 C 0,0 km/h (0 Bft)
21.10.2017 01:10 9,3 C 14,1 C 8,5 C 8,9 C 8,0 C 0,0 C 83 % 85 % 0 % 1014,7 hPa 0,0 l/m 0,0 km/h (0 Bft) O-SO 112 0 min 6,6 C 8,0 C 0,0 km/h (0 Bft)
21.10.2017 01:15 9,2 C 14,1 C 8,4 C 8,8 C 8,0 C 0,0 C 83 % 85 % 0 % 1014,7 hPa 0,0 l/m 0,0 km/h (0 Bft) SO 135 0 min 6,5 C 8,0 C 0,0 km/h (0 Bft)
21.10.2017 01:20 9,1 C 14,1 C 8,4 C 8,7 C 8,0 C 0,0 C 84 % 85 % 0 % 1014,7 hPa 0,0 l/m 0,0 km/h (0 Bft) SO 135 0 min 6,5 C 8,0 C 0,0 km/h (0 Bft)
21.10.2017 01:25 9,1 C 14,0 C 8,5 C 8,7 C 8,0 C 0,0 C 84 % 85 % 0 % 1014,9 hPa 0,0 l/m 0,0 km/h (0 Bft) SO 135 0 min 6,5 C 8,0 C 0,0 km/h (0 Bft)
21.10.2017 01:30 9,0 C 14,0 C 8,5 C 8,7 C 8,1 C 0,0 C 84 % 85 % 0 % 1014,9 hPa 0,0 l/m 0,0 km/h (0 Bft) S 180 0 min 6,4 C 8,1 C 0,0 km/h (0 Bft)
21.10.2017 01:35 8,9 C 13,9 C 8,7 C 8,6 C 8,1 C 0,0 C 84 % 85 % 0 % 1014,9 hPa 0,0 l/m 0,0 km/h (0 Bft) SW 225 0 min 6,3 C 8,1 C 0,0 km/h (0 Bft)
21.10.2017 01:40 8,9 C 13,8 C 8,7 C 8,6 C 8,0 C 0,0 C 84 % 85 % 0 % 1014,9 hPa 0,0 l/m 0,0 km/h (0 Bft) SW 225 0 min 6,3 C 8,0 C 1,6 km/h (1 Bft)
21.10.2017 01:45 8,9 C 13,8 C 8,9 C 8,6 C 8,1 C 0,0 C 84 % 84 % 0 % 1014,9 hPa 0,0 l/m 0,0 km/h (0 Bft) W-SW 247 0 min 6,3 C 8,1 C 0,0 km/h (0 Bft)
21.10.2017 01:50 8,9 C 13,8 C 8,9 C 8,6 C 8,1 C 0,0 C 84 % 84 % 0 % 1014,9 hPa 0,0 l/m 0,0 km/h (0 Bft) W-SW 247 0 min 6,3 C 8,1 C 0,0 km/h (0 Bft)
21.10.2017 01:55 8,8 C 13,8 C 8,9 C 8,6 C 8,1 C 0,0 C 84 % 84 % 0 % 1014,9 hPa 0,0 l/m 0,0 km/h (0 Bft) W-SW 247 0 min 6,2 C 8,1 C 1,8 km/h (1 Bft)
21.10.2017 02:00 8,9 C 13,8 C 8,9 C 8,6 C 8,1 C 0,0 C 84 % 84 % 0 % 1014,9 hPa 0,0 l/m 0,0 km/h (0 Bft) SO 135 0 min 6,3 C 8,1 C 0,0 km/h (0 Bft)
21.10.2017 02:05 8,8 C 13,9 C 8,7 C 8,5 C 8,0 C 0,0 C 84 % 85 % 0 % 1015,0 hPa 0,0 l/m 0,0 km/h (0 Bft) SO 135 0 min 6,2 C 8,0 C 0,0 km/h (0 Bft)
21.10.2017 02:10 8,8 C 13,9 C 8,5 C 8,5 C 8,0 C 0,0 C 84 % 85 % 0 % 1015,0 hPa 0,0 l/m 0,0 km/h (0 Bft) SO 135 0 min 6,2 C 8,0 C 0,0 km/h (0 Bft)
21.10.2017 02:15 8,7 C 13,8 C 8,5 C 8,4 C 7,9 C 0,0 C 84 % 85 % 0 % 1015,0 hPa 0,0 l/m 0,0 km/h (0 Bft) SO 135 0 min 6,2 C 7,9 C 2,1 km/h (1 Bft)
21.10.2017 02:20 8,7 C 13,7 C 8,7 C 8,4 C 7,9 C 0,0 C 84 % 85 % 0 % 1015,0 hPa 0,0 l/m 0,2 km/h (0 Bft) SW 225 0 min 6,2 C 7,9 C 0,0 km/h (0 Bft)
21.10.2017 02:25 8,7 C 13,7 C 8,7 C 8,5 C 8,0 C 0,0 C 85 % 84 % 0 % 1014,9 hPa 0,0 l/m 0,2 km/h (0 Bft) SW 225 0 min 6,3 C 8,0 C 3,5 km/h (1 Bft)
21.10.2017 02:30 8,7 C 13,7 C 8,7 C 8,5 C 8,0 C 0,0 C 85 % 84 % 0 % 1014,9 hPa 0,0 l/m 0,2 km/h (0 Bft) SW 225 0 min 6,3 C 8,0 C 0,0 km/h (0 Bft)
21.10.2017 02:35 8,6 C 13,7 C 8,6 C 8,3 C 7,8 C 0,0 C 85 % 85 % 0 % 1014,9 hPa 0,0 l/m 0,0 km/h (0 Bft) S-SO 157 0 min 6,2 C 7,8 C 0,0 km/h (0 Bft)
21.10.2017 02:40 8,5 C 13,7 C 8,7 C 8,3 C 7,8 C 0,0 C 85 % 84 % 0 % 1014,9 hPa 0,0 l/m 0,0 km/h (0 Bft) S 180 0 min 6,1 C 7,8 C 0,0 km/h (0 Bft)
21.10.2017 02:45 8,4 C 13,7 C 8,6 C 8,2 C 7,7 C 0,0 C 85 % 84 % 0 % 1015,0 hPa 0,0 l/m 0,0 km/h (0 Bft) S 180 0 min 6,0 C 7,7 C 2,4 km/h (1 Bft)
21.10.2017 02:50 8,5 C 13,7 C 8,7 C 8,2 C 7,6 C 0,0 C 85 % 84 % 0 % 1015,0 hPa 0,0 l/m 0,0 km/h (0 Bft) SO 135 0 min 6,1 C 7,6 C 0,0 km/h (0 Bft)
21.10.2017 02:55 8,4 C 13,6 C 8,7 C 8,1 C 7,6 C 0,0 C 85 % 85 % 0 % 1015,0 hPa 0,0 l/m 0,0 km/h (0 Bft) S 180 0 min 6,0 C 7,6 C 0,0 km/h (0 Bft)
21.10.2017 03:00 8,3 C 13,7 C 8,5 C 8,1 C 7,6 C 0,0 C 85 % 85 % 0 % 1015,0 hPa 0,0 l/m 0,0 km/h (0 Bft) S-SO 157 0 min 5,9 C 7,6 C 0,0 km/h (0 Bft)
21.10.2017 03:05 8,3 C 13,7 C 8,4 C 8,1 C 7,6 C 0,0 C 85 % 85 % 0 % 1014,9 hPa 0,0 l/m 0,0 km/h (0 Bft) SO 135 0 min 5,9 C 7,6 C 1,8 km/h (1 Bft)
21.10.2017 03:10 8,3 C 13,6 C 8,5 C 8,1 C 7,6 C 0,0 C 85 % 84 % 0 % 1014,9 hPa 0,0 l/m 0,2 km/h (0 Bft) SO 135 0 min 5,9 C 7,6 C 0,0 km/h (0 Bft)
21.10.2017 03:15 8,3 C 13,7 C 8,7 C 8,1 C 7,8 C 0,0 C 85 % 84 % 0 % 1014,9 hPa 0,0 l/m 0,3 km/h (0 Bft) SW 225 0 min 5,9 C 7,8 C 4,0 km/h (1 Bft)
21.10.2017 03:20 8,2 C 13,7 C 8,5 C 8,1 C 7,8 C 0,0 C 85 % 84 % 0 % 1014,9 hPa 0,0 l/m 0,3 km/h (0 Bft) S 180 0 min 5,8 C 7,8 C 0,0 km/h (0 Bft)
21.10.2017 03:25 8,2 C 13,7 C 8,4 C 8,0 C 7,7 C 0,0 C 85 % 85 % 0 % 1014,8 hPa 0,0 l/m 0,2 km/h (0 Bft) S 180 0 min 5,8 C 7,7 C 0,0 km/h (0 Bft)
21.10.2017 03:30 8,3 C 13,7 C 8,2 C 8,1 C 7,7 C 0,0 C 85 % 85 % 0 % 1014,8 hPa 0,0 l/m 0,0 km/h (0 Bft) S 180 0 min 5,9 C 7,7 C 0,0 km/h (0 Bft)
21.10.2017 03:35 8,1 C 13,7 C 8,2 C 8,0 C 7,8 C 0,0 C 85 % 85 % 0 % 1014,8 hPa 0,0 l/m 0,0 km/h (0 Bft) S 180 0 min 5,7 C 7,8 C 0,0 km/h (0 Bft)
21.10.2017 03:40 8,1 C 13,7 C 8,3 C 8,0 C 7,9 C 0,0 C 85 % 84 % 0 % 1014,8 hPa 0,0 l/m 0,0 km/h (0 Bft) S 180 0 min 5,7 C 7,9 C 0,0 km/h (0 Bft)
21.10.2017 03:45 8,0 C 13,7 C 8,4 C 8,1 C 8,1 C 0,1 C 85 % 84 % 0 % 1014,9 hPa 0,0 l/m 0,0 km/h (0 Bft) S-SO 157 0 min 5,6 C 8,1 C 0,0 km/h (0 Bft)
21.10.2017 03:50 8,1 C 13,7 C 8,4 C 8,3 C 8,3 C 0,2 C 85 % 84 % 0 % 1014,9 hPa 0,0 l/m 0,0 km/h (0 Bft) SW 225 0 min 5,7 C 8,3 C 0,0 km/h (0 Bft)
21.10.2017 03:55 8,1 C 13,7 C 8,5 C 8,4 C 8,4 C 0,3 C 86 % 84 % 0 % 1014,9 hPa 0,0 l/m 0,0 km/h (0 Bft) SO 135 0 min 5,9 C 8,4 C 0,0 km/h (0 Bft)
21.10.2017 04:00 8,1 C 13,7 C 8,5 C 8,5 C 8,5 C 0,4 C 86 % 84 % 0 % 1014,9 hPa 0,0 l/m 0,0 km/h (0 Bft) SO 135 0 min 5,9 C 8,5 C 0,0 km/h (0 Bft)
21.10.2017 04:05 8,1 C 13,6 C 8,7 C 8,5 C 8,5 C 0,4 C 86 % 84 % 0 % 1015,0 hPa 0,0 l/m 0,0 km/h (0 Bft) S 180 0 min 5,9 C 8,5 C 0,0 km/h (0 Bft)
21.10.2017 04:10 8,2 C 13,6 C 8,7 C 8,5 C 8,5 C 0,3 C 86 % 84 % 0 % 1015,0 hPa 0,0 l/m 0,0 km/h (0 Bft) S-SO 157 0 min 6,0 C 8,5 C 0,0 km/h (0 Bft)
21.10.2017 04:15 8,3 C 13,5 C 8,7 C 8,5 C 8,5 C 0,2 C 86 % 84 % 0 % 1015,0 hPa 0,0 l/m 0,2 km/h (0 Bft) S-SO 157 0 min 6,1 C 8,5 C 0,0 km/h (0 Bft)
21.10.2017 04:20 8,3 C 13,5 C 8,8 C 8,6 C 8,6 C 0,3 C 86 % 84 % 0 % 1015,0 hPa 0,0 l/m 0,2 km/h (0 Bft) S 180 0 min 6,1 C 8,6 C 3,4 km/h (1 Bft)
21.10.2017 04:25 8,3 C 13,5 C 8,8 C 8,6 C 8,6 C 0,3 C 86 % 84 % 0 % 1014,9 hPa 0,0 l/m 0,2 km/h (0 Bft) W-SW 247 0 min 6,1 C 8,6 C 2,4 km/h (1 Bft)
21.10.2017 04:30 8,3 C 13,4 C 8,8 C 8,6 C 8,6 C 0,3 C 86 % 84 % 0 % 1014,9 hPa 0,0 l/m 0,2 km/h (0 Bft) SW 225 0 min 6,1 C 8,6 C 0,0 km/h (0 Bft)
21.10.2017 04:35 8,3 C 13,4 C 8,9 C 8,6 C 8,6 C 0,3 C 86 % 84 % 0 % 1014,9 hPa 0,0 l/m 0,2 km/h (0 Bft) S 180 0 min 6,1 C 8,6 C 0,0 km/h (0 Bft)
21.10.2017 04:40 8,3 C 13,4 C 9,0 C 8,6 C 8,6 C 0,3 C 86 % 84 % 0 % 1014,9 hPa 0,0 l/m 0,0 km/h (0 Bft) S 180 0 min 6,1 C 8,6 C 0,0 km/h (0 Bft)
21.10.2017 04:45 8,4 C 13,4 C 9,1 C 8,7 C 8,7 C 0,3 C 86 % 84 % 0 % 1014,9 hPa 0,0 l/m 0,2 km/h (0 Bft) SO 135 0 min 6,2 C 8,7 C 0,0 km/h (0 Bft)
21.10.2017 04:50 8,4 C 13,4 C 9,1 C 8,7 C 8,7 C 0,3 C 86 % 84 % 0 % 1014,9 hPa 0,0 l/m 0,3 km/h (0 Bft) S 180 0 min 6,2 C 8,7 C 0,0 km/h (0 Bft)
21.10.2017 04:55 8,5 C 13,4 C 9,2 C 9,0 C 9,0 C 0,5 C 86 % 84 % 0 % 1014,9 hPa 0,0 l/m 0,3 km/h (0 Bft) S 180 0 min 6,3 C 9,0 C 0,0 km/h (0 Bft)
21.10.2017 05:00 8,6 C 13,3 C 9,2 C 9,0 C 9,0 C 0,4 C 85 % 84 % 0 % 1014,9 hPa 0,0 l/m 0,3 km/h (0 Bft) SW 225 0 min 6,2 C 9,0 C 3,5 km/h (1 Bft)
21.10.2017 05:05 8,7 C 13,3 C 9,3 C 9,0 C 9,0 C 0,3 C 86 % 84 % 0 % 1014,7 hPa 0,0 l/m 0,2 km/h (0 Bft) S-SO 157 0 min 6,5 C 9,0 C 0,0 km/h (0 Bft)
21.10.2017 05:10 8,6 C 13,3 C 9,3 C 9,1 C 9,1 C 0,5 C 85 % 84 % 0 % 1014,7 hPa 0,0 l/m 0,3 km/h (0 Bft) SO 135 0 min 6,2 C 9,1 C 0,0 km/h (0 Bft)
21.10.2017 05:15 8,7 C 13,3 C 9,5 C 9,2 C 9,2 C 0,5 C 86 % 84 % 0 % 1014,7 hPa 0,0 l/m 0,3 km/h (0 Bft) O-SO 112 0 min 6,5 C 9,2 C 0,0 km/h (0 Bft)
21.10.2017 05:20 8,8 C 13,3 C 9,5 C 9,2 C 9,2 C 0,4 C 86 % 84 % 0 % 1014,7 hPa 0,0 l/m 0,3 km/h (0 Bft) S-SW 202 0 min 6,6 C 9,2 C 1,8 km/h (1 Bft)
21.10.2017 05:25 8,9 C 13,3 C 9,6 C 9,3 C 9,3 C 0,4 C 85 % 84 % 0 % 1014,8 hPa 0,0 l/m 0,2 km/h (0 Bft) SW 225 0 min 6,5 C 9,3 C 0,0 km/h (0 Bft)
21.10.2017 05:30 9,1 C 13,3 C 9,5 C 9,3 C 9,3 C 0,2 C 85 % 84 % 0 % 1014,8 hPa 0,0 l/m 0,3 km/h (0 Bft) S-SW 202 0 min 6,7 C 9,3 C 1,6 km/h (1 Bft)
21.10.2017 05:35 9,1 C 13,3 C 9,7 C 9,4 C 9,4 C 0,3 C 85 % 84 % 0 % 1014,8 hPa 0,0 l/m 0,3 km/h (0 Bft) S 180 0 min 6,7 C 9,4 C 2,3 km/h (1 Bft)
21.10.2017 05:40 9,2 C 13,3 C 9,7 C 9,4 C 9,4 C 0,2 C 85 % 84 % 0 % 1014,8 hPa 0,0 l/m 0,5 km/h (0 Bft) S-SW 202 0 min 6,8 C 9,4 C 2,1 km/h (1 Bft)
21.10.2017 05:45 9,2 C 13,3 C 9,6 C 9,4 C 9,4 C 0,2 C 85 % 84 % 0 % 1014,9 hPa 0,0 l/m 0,5 km/h (0 Bft) W-SW 247 0 min 6,8 C 9,4 C 0,0 km/h (0 Bft)
21.10.2017 05:50 9,3 C 13,3 C 9,6 C 9,4 C 9,4 C 0,1 C 85 % 85 % 0 % 1014,9 hPa 0,0 l/m 0,5 km/h (0 Bft) O-SO 112 0 min 6,9 C 9,4 C 0,0 km/h (0 Bft)
21.10.2017 05:55 9,4 C 13,3 C 9,7 C 9,5 C 9,5 C 0,1 C 85 % 84 % 0 % 1014,9 hPa 0,0 l/m 0,5 km/h (0 Bft) O 90 0 min 7,0 C 9,5 C 1,8 km/h (1 Bft)
21.10.2017 06:00 9,5 C 13,2 C 9,6 C 9,5 C 9,5 C 0,0 C 85 % 85 % 0 % 1014,9 hPa 0,0 l/m 0,5 km/h (0 Bft) S-SO 157 0 min 7,1 C 9,5 C 1,9 km/h (1 Bft)
21.10.2017 06:05 9,5 C 13,2 C 9,7 C 9,5 C 9,5 C 0,0 C 85 % 85 % 0 % 1014,9 hPa 0,0 l/m 0,6 km/h (0 Bft) S-SO 157 0 min 7,1 C 9,5 C 4,3 km/h (1 Bft)
21.10.2017 06:10 9,5 C 13,2 C 9,6 C 9,5 C 9,5 C 0,0 C 85 % 85 % 0 % 1014,9 hPa 0,0 l/m 0,6 km/h (0 Bft) W-SW 247 0 min 7,1 C 9,5 C 1,8 km/h (1 Bft)
21.10.2017 06:15 9,6 C 13,2 C 9,6 C 9,6 C 9,5 C 0,0 C 85 % 85 % 0 % 1014,9 hPa 0,0 l/m 0,5 km/h (0 Bft) W-SW 247 0 min 7,2 C 9,5 C 5,5 km/h (1 Bft)
21.10.2017 06:20 9,7 C 13,2 C 9,6 C 9,6 C 9,5 C 0,0 C 85 % 85 % 0 % 1014,9 hPa 0,0 l/m 0,5 km/h (0 Bft) W-SW 247 0 min 7,3 C 9,5 C 0,0 km/h (0 Bft)
21.10.2017 06:25 9,6 C 13,2 C 9,6 C 9,6 C 9,5 C 0,0 C 85 % 85 % 0 % 1014,9 hPa 0,0 l/m 0,2 km/h (0 Bft) S-SO 157 0 min 7,2 C 9,5 C 0,0 km/h (0 Bft)
21.10.2017 06:30 9,6 C 13,2 C 9,6 C 9,6 C 9,5 C 0,0 C 85 % 85 % 0 % 1014,9 hPa 0,0 l/m 0,2 km/h (0 Bft) W-SW 247 0 min 7,2 C 9,5 C 0,0 km/h (0 Bft)
21.10.2017 06:35 9,6 C 13,3 C 9,7 C 9,6 C 9,5 C 0,0 C 85 % 85 % 0 % 1014,9 hPa 0,0 l/m 0,3 km/h (0 Bft) SO 135 0 min 7,2 C 9,5 C 1,8 km/h (1 Bft)
21.10.2017 06:40 9,6 C 13,2 C 9,6 C 9,6 C 9,5 C 0,0 C 85 % 85 % 0 % 1014,9 hPa 0,0 l/m 0,3 km/h (0 Bft) S 180 0 min 7,2 C 9,5 C 0,0 km/h (0 Bft)
21.10.2017 06:45 9,6 C 13,2 C 9,7 C 9,6 C 9,5 C 0,0 C 85 % 85 % 0 % 1015,2 hPa 0,0 l/m 0,2 km/h (0 Bft) SO 135 0 min 7,2 C 9,5 C 0,0 km/h (0 Bft)
21.10.2017 06:50 9,7 C 13,3 C 9,6 C 9,6 C 9,5 C 0,0 C 85 % 85 % 0 % 1015,2 hPa 0,0 l/m 0,2 km/h (0 Bft) SO 135 0 min 7,3 C 9,5 C 0,0 km/h (0 Bft)
21.10.2017 06:55 9,7 C 13,2 C 9,5 C 9,6 C 9,4 C 0,0 C 85 % 85 % 0 % 1015,2 hPa 0,0 l/m 0,2 km/h (0 Bft) SO 135 0 min 7,3 C 9,4 C 1,6 km/h (1 Bft)
21.10.2017 07:00 9,6 C 13,2 C 9,5 C 9,5 C 9,4 C 0,0 C 84 % 85 % 0 % 1015,2 hPa 0,0 l/m 0,2 km/h (0 Bft) O-SO 112 0 min 7,0 C 9,4 C 0,0 km/h (0 Bft)
21.10.2017 07:05 9,6 C 13,2 C 9,6 C 9,5 C 9,4 C 0,0 C 85 % 85 % 0 % 1015,0 hPa 0,0 l/m 0,2 km/h (0 Bft) O-SO 112 0 min 7,2 C 9,4 C 2,1 km/h (1 Bft)
21.10.2017 07:10 9,7 C 13,2 C 9,6 C 9,6 C 9,5 C 0,0 C 85 % 85 % 0 % 1015,0 hPa 0,0 l/m 0,6 km/h (0 Bft) S 180 0 min 7,3 C 9,5 C 0,0 km/h (0 Bft)
21.10.2017 07:15 9,7 C 13,2 C 9,8 C 9,7 C 9,6 C 0,0 C 85 % 85 % 0 % 1015,0 hPa 0,0 l/m 1,0 km/h (0 Bft) SO 135 0 min 7,3 C 9,6 C 0,0 km/h (0 Bft)
21.10.2017 07:20 9,9 C 13,2 C 9,8 C 9,8 C 9,6 C 0,0 C 84 % 85 % 0 % 1015,0 hPa 0,0 l/m 0,8 km/h (0 Bft) S 180 0 min 7,3 C 9,6 C 0,0 km/h (0 Bft)
21.10.2017 07:25 9,9 C 13,2 C 9,8 C 9,8 C 9,6 C 0,0 C 84 % 85 % 0 % 1014,9 hPa 0,0 l/m 0,8 km/h (0 Bft) NO 45 0 min 7,3 C 9,6 C 1,6 km/h (1 Bft)
21.10.2017 07:30 9,9 C 13,2 C 9,9 C 9,8 C 9,6 C 0,0 C 84 % 85 % 0 % 1014,9 hPa 0,0 l/m 0,3 km/h (0 Bft) S-SO 157 0 min 7,3 C 9,6 C 0,0 km/h (0 Bft)
21.10.2017 07:35 9,9 C 13,2 C 9,9 C 9,8 C 9,5 C 0,0 C 84 % 85 % 0 % 1014,9 hPa 0,0 l/m 0,2 km/h (0 Bft) S 180 0 min 7,3 C 9,5 C 0,0 km/h (0 Bft)
21.10.2017 07:40 9,9 C 13,2 C 9,9 C 9,8 C 9,5 C 0,0 C 84 % 85 % 0 % 1014,9 hPa 0,0 l/m 0,0 km/h (0 Bft) S-SO 157 0 min 7,3 C 9,5 C 1,9 km/h (1 Bft)
21.10.2017 07:45 9,9 C 13,1 C 9,7 C 9,8 C 9,5 C 0,0 C 84 % 85 % 0 % 1015,1 hPa 0,0 l/m 0,3 km/h (0 Bft) SO 135 0 min 7,3 C 9,5 C 0,0 km/h (0 Bft)
21.10.2017 07:50 9,9 C 13,2 C 9,9 C 9,8 C 9,5 C 0,0 C 84 % 85 % 0 % 1015,1 hPa 0,0 l/m 0,3 km/h (0 Bft) SW 225 0 min 7,3 C 9,5 C 0,0 km/h (0 Bft)
21.10.2017 07:55 9,9 C 13,1 C 9,9 C 9,8 C 9,5 C 0,0 C 84 % 85 % 0 % 1015,1 hPa 0,0 l/m 0,3 km/h (0 Bft) SW 225 0 min 7,3 C 9,5 C 0,0 km/h (0 Bft)
21.10.2017 08:00 9,9 C 13,1 C 9,8 C 9,8 C 9,5 C 0,0 C 84 % 85 % 0 % 1015,1 hPa 0,0 l/m 0,2 km/h (0 Bft) SO 135 0 min 7,3 C 9,5 C 0,0 km/h (0 Bft)
21.10.2017 08:05 9,9 C 13,1 C 9,9 C 9,8 C 9,5 C 0,0 C 84 % 85 % 0 % 1015,2 hPa 0,0 l/m 0,3 km/h (0 Bft) W-SW 247 0 min 7,3 C 9,5 C 2,9 km/h (1 Bft)
21.10.2017 08:10 9,9 C 13,1 C 9,9 C 9,8 C 9,5 C 0,0 C 84 % 85 % 0 % 1015,2 hPa 0,0 l/m 0,3 km/h (0 Bft) S 180 0 min 7,3 C 9,5 C 0,0 km/h (0 Bft)
21.10.2017 08:15 9,9 C 13,1 C 9,9 C 9,8 C 9,6 C 0,0 C 84 % 85 % 0 % 1015,2 hPa 0,0 l/m 0,3 km/h (0 Bft) SW 225 0 min 7,3 C 9,6 C 0,0 km/h (0 Bft)
21.10.2017 08:20 9,8 C 13,1 C 9,8 C 9,8 C 9,7 C 0,0 C 84 % 85 % 0 % 1015,2 hPa 0,0 l/m 0,2 km/h (0 Bft) S 180 0 min 7,2 C 9,7 C 0,0 km/h (0 Bft)
21.10.2017 08:25 9,9 C 13,1 C 9,9 C 9,8 C 9,7 C 0,0 C 84 % 85 % 0 % 1015,0 hPa 0,0 l/m 0,6 km/h (0 Bft) W-SW 247 0 min 7,3 C 9,7 C 2,7 km/h (1 Bft)
21.10.2017 08:30 10,0 C 13,1 C 9,9 C 9,9 C 9,8 C 0,0 C 84 % 85 % 0 % 1015,0 hPa 0,0 l/m 1,0 km/h (0 Bft) W-SW 247 0 min 7,4 C 9,8 C 0,0 km/h (0 Bft)
21.10.2017 08:35 10,0 C 13,1 C 10,0 C 10,0 C 9,9 C 0,0 C 84 % 85 % 0 % 1015,0 hPa 0,0 l/m 0,8 km/h (0 Bft) S-SO 157 0 min 7,4 C 9,9 C 0,0 km/h (0 Bft)
21.10.2017 08:40 10,0 C 13,1 C 10,0 C 10,0 C 9,9 C 0,0 C 84 % 85 % 0 % 1015,0 hPa 0,0 l/m 0,3 km/h (0 Bft) S-SO 157 0 min 7,4 C 9,9 C 0,0 km/h (0 Bft)
21.10.2017 08:45 10,1 C 13,1 C 10,1 C 10,1 C 10,0 C 0,0 C 84 % 85 % 0 % 1015,0 hPa 0,0 l/m 0,6 km/h (0 Bft) S 180 0 min 7,5 C 10,0 C 3,9 km/h (1 Bft)
21.10.2017 08:50 10,1 C 13,1 C 10,1 C 10,1 C 10,1 C 0,0 C 84 % 85 % 0 % 1015,0 hPa 0,0 l/m 0,6 km/h (0 Bft) S 180 0 min 7,5 C 10,1 C 1,8 km/h (1 Bft)
21.10.2017 08:55 10,3 C 13,1 C 10,1 C 10,3 C 10,2 C 0,0 C 84 % 85 % 0 % 1015,0 hPa 0,0 l/m 0,3 km/h (0 Bft) S 180 0 min 7,7 C 10,2 C 0,0 km/h (0 Bft)
21.10.2017 09:00 10,3 C 13,0 C 10,2 C 10,3 C 10,3 C 0,0 C 84 % 85 % 0 % 1015,0 hPa 0,0 l/m 0,5 km/h (0 Bft) S 180 0 min 7,7 C 10,3 C 2,1 km/h (1 Bft)
21.10.2017 09:05 10,3 C 13,0 C 10,3 C 10,4 C 10,4 C 0,1 C 84 % 85 % 3 % 1015,5 hPa 0,0 l/m 1,4 km/h (1 Bft) SW 225 0 min 7,7 C 10,4 C 6,9 km/h (2 Bft)
21.10.2017 09:10 10,5 C 13,0 C 10,3 C 10,5 C 10,5 C 0,0 C 84 % 84 % 0 % 1015,5 hPa 0,0 l/m 1,3 km/h (1 Bft) S 180 0 min 7,9 C 10,5 C 0,0 km/h (0 Bft)
21.10.2017 09:15 10,5 C 13,0 C 10,5 C 10,7 C 10,7 C 0,2 C 83 % 84 % 5 % 1015,5 hPa 0,0 l/m 1,1 km/h (1 Bft) SO 135 0 min 7,7 C 10,7 C 2,6 km/h (1 Bft)
21.10.2017 09:20 10,7 C 13,0 C 10,5 C 10,8 C 10,8 C 0,1 C 83 % 84 % 3 % 1015,5 hPa 0,0 l/m 0,8 km/h (0 Bft) SO 135 0 min 7,9 C 10,8 C 0,0 km/h (0 Bft)
21.10.2017 09:25 10,7 C 12,9 C 10,7 C 11,0 C 11,0 C 0,3 C 83 % 84 % 8 % 1015,2 hPa 0,0 l/m 0,8 km/h (0 Bft) SW 225 0 min 7,9 C 11,0 C 3,9 km/h (1 Bft)
21.10.2017 09:30 10,8 C 12,9 C 10,7 C 11,1 C 11,1 C 0,3 C 83 % 84 % 8 % 1015,2 hPa 0,0 l/m 1,0 km/h (0 Bft) S-SW 202 0 min 8,0 C 11,1 C 0,0 km/h (0 Bft)
21.10.2017 09:36 10,8 C 12,9 C 10,9 C 11,4 C 11,4 C 0,6 C 83 % 84 % 16 % 1015,2 hPa 0,0 l/m 0,6 km/h (0 Bft) S 180 0 min 8,0 C 11,4 C 3,1 km/h (1 Bft)
21.10.2017 09:40 11,0 C 12,9 C 11,1 C 11,5 C 11,5 C 0,5 C 83 % 84 % 13 % 1015,2 hPa 0,0 l/m 0,5 km/h (0 Bft) SW 225 0 min 8,2 C 11,5 C 1,8 km/h (1 Bft)
21.10.2017 09:45 11,1 C 12,9 C 11,1 C 11,7 C 11,7 C 0,6 C 82 % 84 % 16 % 1015,2 hPa 0,0 l/m 0,5 km/h (0 Bft) S-SO 157 0 min 8,1 C 11,7 C 0,0 km/h (0 Bft)
21.10.2017 09:50 11,2 C 12,9 C 11,1 C 11,8 C 11,8 C 0,6 C 83 % 84 % 16 % 1015,2 hPa 0,0 l/m 0,5 km/h (0 Bft) SW 225 0 min 8,4 C 11,8 C 2,4 km/h (1 Bft)
21.10.2017 09:55 11,2 C 12,9 C 11,2 C 11,9 C 11,9 C 0,7 C 83 % 84 % 18 % 1015,2 hPa 0,0 l/m 0,3 km/h (0 Bft) S-SO 157 0 min 8,4 C 11,9 C 1,6 km/h (1 Bft)
21.10.2017 10:00 11,3 C 12,9 C 11,2 C 11,9 C 11,9 C 0,6 C 83 % 84 % 16 % 1015,2 hPa 0,0 l/m 0,2 km/h (0 Bft) S 180 0 min 8,5 C 11,9 C 0,0 km/h (0 Bft)
21.10.2017 10:06 11,4 C 12,9 C 11,3 C 12,1 C 12,1 C 0,7 C 82 % 84 % 18 % 1015,3 hPa 0,0 l/m 0,3 km/h (0 Bft) SW 225 0 min 8,4 C 12,1 C 0,0 km/h (0 Bft)
21.10.2017 10:10 11,5 C 12,9 C 11,4 C 12,1 C 12,1 C 0,6 C 82 % 84 % 16 % 1015,3 hPa 0,0 l/m 0,3 km/h (0 Bft) S 180 0 min 8,5 C 12,1 C 0,0 km/h (0 Bft)
21.10.2017 10:15 11,7 C 12,9 C 11,5 C 12,2 C 12,2 C 0,5 C 82 % 84 % 13 % 1015,3 hPa 0,0 l/m 0,5 km/h (0 Bft) SW 225 0 min 8,7 C 12,2 C 2,9 km/h (1 Bft)
21.10.2017 10:20 11,6 C 12,9 C 11,5 C 12,3 C 12,3 C 0,7 C 82 % 84 % 18 % 1015,3 hPa 0,0 l/m 0,6 km/h (0 Bft) NW 315 0 min 8,6 C 12,3 C 2,1 km/h (1 Bft)
21.10.2017 10:25 11,7 C 12,9 C 11,6 C 12,3 C 12,3 C 0,6 C 81 % 84 % 16 % 1015,2 hPa 0,0 l/m 0,6 km/h (0 Bft) W-SW 247 0 min 8,5 C 12,3 C 0,0 km/h (0 Bft)
21.10.2017 10:30 11,7 C 12,9 C 11,6 C 12,3 C 12,3 C 0,6 C 81 % 84 % 16 % 1015,2 hPa 0,0 l/m 0,6 km/h (0 Bft) S-SW 202 0 min 8,5 C 12,3 C 0,0 km/h (0 Bft)
21.10.2017 10:35 11,8 C 12,9 C 11,6 C 12,3 C 12,3 C 0,5 C 81 % 84 % 13 % 1015,2 hPa 0,0 l/m 0,8 km/h (0 Bft) SW 225 0 min 8,6 C 12,3 C 0,0 km/h (0 Bft)
21.10.2017 10:40 11,9 C 12,9 C 11,6 C 12,2 C 12,2 C 0,3 C 81 % 84 % 8 % 1015,2 hPa 0,0 l/m 1,0 km/h (0 Bft) SW 225 0 min 8,7 C 12,2 C 2,3 km/h (1 Bft)
21.10.2017 10:46 11,9 C 12,9 C 11,6 C 12,2 C 12,2 C 0,3 C 81 % 84 % 8 % 1015,6 hPa 0,0 l/m 0,8 km/h (0 Bft) W-SW 247 0 min 8,7 C 12,2 C 2,6 km/h (1 Bft)
21.10.2017 10:50 11,9 C 12,9 C 11,6 C 12,1 C 12,1 C 0,2 C 81 % 84 % 5 % 1015,6 hPa 0,0 l/m 1,0 km/h (0 Bft) SW 225 0 min 8,7 C 12,1 C 4,0 km/h (1 Bft)
21.10.2017 10:57 11,8 C 12,9 C 11,6 C 12,1 C 12,1 C 0,3 C 80 % 84 % 8 % 1015,6 hPa 0,0 l/m 1,1 km/h (1 Bft) S-SO 157 0 min 8,5 C 12,1 C 0,0 km/h (0 Bft)
21.10.2017 10:58 11,8 C 12,9 C 11,6 C 12,1 C 12,1 C 0,3 C 80 % 84 % 8 % 1015,6 hPa 0,0 l/m 1,1 km/h (1 Bft) S-SO 157 0 min 8,5 C 12,1 C 0,0 km/h (0 Bft)
21.10.2017 10:59 11,9 C 12,9 C 11,6 C 12,2 C 12,2 C 0,3 C 81 % 83 % 8 % 1015,6 hPa 0,0 l/m 0,6 km/h (0 Bft) O 90 0 min 8,7 C 12,2 C 1,6 km/h (1 Bft)
21.10.2017 11:00 11,9 C 12,9 C 11,6 C 12,2 C 12,2 C 0,3 C 81 % 83 % 8 % 1015,6 hPa 0,0 l/m 0,6 km/h (0 Bft) O 90 0 min 8,7 C 12,2 C 1,6 km/h (1 Bft)
21.10.2017 11:01 11,9 C 12,9 C 11,6 C 12,2 C 12,2 C 0,3 C 81 % 83 % 8 % 1015,6 hPa 0,0 l/m 0,6 km/h (0 Bft) O 90 0 min 8,7 C 12,2 C 1,6 km/h (1 Bft)
21.10.2017 11:03 11,9 C 12,9 C 11,6 C 12,2 C 12,2 C 0,3 C 81 % 83 % 8 % 1015,6 hPa 0,0 l/m 0,6 km/h (0 Bft) O 90 0 min 8,7 C 12,2 C 1,6 km/h (1 Bft)
21.10.2017 11:14 12,0 C 12,9 C 11,9 C 12,4 C 12,4 C 0,4 C 81 % 83 % 11 % 1015,6 hPa 0,0 l/m 0,3 km/h (0 Bft) W-SW 247 0 min 8,8 C 12,4 C 0,0 km/h (0 Bft)
21.10.2017 11:15 12,0 C 12,9 C 11,9 C 12,4 C 12,4 C 0,4 C 81 % 83 % 11 % 1015,6 hPa 0,0 l/m 0,3 km/h (0 Bft) W-SW 247 0 min 8,8 C 12,4 C 0,0 km/h (0 Bft)
21.10.2017 11:16 12,0 C 12,9 C 11,9 C 12,4 C 12,4 C 0,4 C 81 % 83 % 11 % 1015,6 hPa 0,0 l/m 0,3 km/h (0 Bft) W-SW 247 0 min 8,8 C 12,4 C 0,0 km/h (0 Bft)
21.10.2017 11:17 12,0 C 12,9 C 11,9 C 12,4 C 12,4 C 0,4 C 81 % 83 % 11 % 1015,6 hPa 0,0 l/m 0,3 km/h (0 Bft) W-SW 247 0 min 8,8 C 12,4 C 0,0 km/h (0 Bft)
21.10.2017 11:18 12,0 C 12,9 C 11,9 C 12,4 C 12,4 C 0,4 C 81 % 83 % 11 % 1015,6 hPa 0,0 l/m 0,3 km/h (0 Bft) W-SW 247 0 min 8,8 C 12,4 C 0,0 km/h (0 Bft)
21.10.2017 11:20 12,0 C 12,9 C 12,0 C 12,6 C 12,6 C 0,6 C 81 % 83 % 16 % 1015,6 hPa 0,0 l/m 0,3 km/h (0 Bft) S-SO 157 0 min 8,8 C 12,6 C 0,0 km/h (0 Bft)
21.10.2017 11:31 12,2 C 12,9 C 12,2 C 13,1 C 13,1 C 0,9 C 80 % 83 % 24 % 1015,1 hPa 0,0 l/m 0,6 km/h (0 Bft) S 180 0 min 8,9 C 13,1 C 0,0 km/h (0 Bft)
21.10.2017 11:32 12,2 C 12,9 C 12,2 C 13,1 C 13,1 C 0,9 C 80 % 83 % 24 % 1015,1 hPa 0,0 l/m 0,6 km/h (0 Bft) S 180 0 min 8,9 C 13,1 C 0,0 km/h (0 Bft)
21.10.2017 11:33 12,2 C 12,9 C 12,2 C 13,1 C 13,1 C 0,9 C 80 % 83 % 24 % 1015,1 hPa 0,0 l/m 0,6 km/h (0 Bft) S 180 0 min 8,9 C 13,1 C 0,0 km/h (0 Bft)
21.10.2017 11:34 12,4 C 12,9 C 12,3 C 13,3 C 13,3 C 0,9 C 80 % 83 % 24 % 1015,1 hPa 0,0 l/m 0,8 km/h (0 Bft) W-SW 247 0 min 9,0 C 13,3 C 1,6 km/h (1 Bft)
21.10.2017 11:35 12,4 C 12,9 C 12,3 C 13,3 C 13,3 C 0,9 C 80 % 83 % 24 % 1015,1 hPa 0,0 l/m 0,8 km/h (0 Bft) W-SW 247 0 min 9,0 C 13,3 C 1,6 km/h (1 Bft)
21.10.2017 11:37 12,4 C 12,9 C 12,3 C 13,3 C 13,3 C 0,9 C 80 % 83 % 24 % 1015,1 hPa 0,0 l/m 0,8 km/h (0 Bft) W-SW 247 0 min 9,0 C 13,3 C 1,6 km/h (1 Bft)
21.10.2017 11:48 12,7 C 12,9 C 12,5 C 13,4 C 13,4 C 0,7 C 79 % 82 % 18 % 1015,6 hPa 0,0 l/m 0,6 km/h (0 Bft) S-SW 202 0 min 9,2 C 13,4 C 0,0 km/h (0 Bft)
21.10.2017 11:49 12,7 C 12,9 C 12,5 C 13,4 C 13,4 C 0,7 C 79 % 82 % 18 % 1015,6 hPa 0,0 l/m 0,6 km/h (0 Bft) S-SW 202 0 min 9,2 C 13,4 C 0,0 km/h (0 Bft)
21.10.2017 11:50 12,7 C 12,9 C 12,5 C 13,4 C 13,4 C 0,7 C 79 % 82 % 18 % 1015,6 hPa 0,0 l/m 0,6 km/h (0 Bft) S-SW 202 0 min 9,2 C 13,4 C 0,0 km/h (0 Bft)
21.10.2017 11:51 12,7 C 12,9 C 12,5 C 13,4 C 13,4 C 0,7 C 79 % 82 % 18 % 1015,6 hPa 0,0 l/m 0,6 km/h (0 Bft) S-SW 202 0 min 9,2 C 13,4 C 0,0 km/h (0 Bft)
21.10.2017 11:52 12,7 C 12,9 C 12,5 C 13,4 C 13,4 C 0,7 C 79 % 82 % 18 % 1015,6 hPa 0,0 l/m 0,6 km/h (0 Bft) S-SW 202 0 min 9,2 C 13,4 C 0,0 km/h (0 Bft)
21.10.2017 11:54 12,7 C 12,9 C 12,7 C 13,6 C 13,6 C 0,9 C 79 % 82 % 24 % 1015,6 hPa 0,0 l/m 0,6 km/h (0 Bft) S 180 0 min 9,2 C 13,6 C 0,0 km/h (0 Bft)
21.10.2017 12:05 12,9 C 12,9 C 12,9 C 14,0 C 14,0 C 1,1 C 79 % 82 % 29 % 1015,4 hPa 0,0 l/m 0,2 km/h (0 Bft) S 180 0 min 9,3 C 14,0 C 0,0 km/h (0 Bft)
21.10.2017 12:06 12,9 C 12,9 C 12,9 C 14,0 C 14,0 C 1,1 C 79 % 82 % 29 % 1015,4 hPa 0,0 l/m 0,2 km/h (0 Bft) S 180 0 min 9,3 C 14,0 C 0,0 km/h (0 Bft)
21.10.2017 12:07 12,9 C 12,9 C 12,9 C 14,0 C 14,0 C 1,1 C 79 % 82 % 29 % 1015,4 hPa 0,0 l/m 0,2 km/h (0 Bft) S 180 0 min 9,3 C 14,0 C 0,0 km/h (0 Bft)
21.10.2017 12:08 12,9 C 12,9 C 12,9 C 14,0 C 14,0 C 1,1 C 79 % 82 % 29 % 1015,4 hPa 0,0 l/m 0,2 km/h (0 Bft) S 180 0 min 9,3 C 14,0 C 0,0 km/h (0 Bft)
21.10.2017 12:09 13,1 C 12,9 C 13,0 C 14,2 C 14,2 C 1,1 C 78 % 82 % 29 % 1015,4 hPa 0,0 l/m 0,3 km/h (0 Bft) W 270 0 min 9,4 C 14,2 C 0,0 km/h (0 Bft)
21.10.2017 12:11 13,1 C 12,9 C 13,0 C 14,2 C 14,2 C 1,1 C 78 % 82 % 29 % 1015,4 hPa 0,0 l/m 0,3 km/h (0 Bft) W 270 0 min 9,4 C 14,2 C 0,0 km/h (0 Bft)
21.10.2017 12:22 13,2 C 12,9 C 13,4 C 14,7 C 14,7 C 1,5 C 78 % 81 % 39 % 1015,4 hPa 0,0 l/m 0,5 km/h (0 Bft) S-SO 157 0 min 9,4 C 14,7 C 0,0 km/h (0 Bft)
21.10.2017 12:23 13,2 C 12,9 C 13,4 C 14,7 C 14,7 C 1,5 C 78 % 81 % 39 % 1015,4 hPa 0,0 l/m 0,5 km/h (0 Bft) S-SO 157 0 min 9,4 C 14,7 C 0,0 km/h (0 Bft)
21.10.2017 12:24 13,5 C 12,9 C 13,6 C 15,1 C 15,1 C 1,6 C 78 % 81 % 42 % 1015,7 hPa 0,0 l/m 0,6 km/h (0 Bft) SW 225 0 min 9,7 C 15,1 C 1,8 km/h (1 Bft)
21.10.2017 12:25 13,5 C 12,9 C 13,6 C 15,1 C 15,1 C 1,6 C 78 % 81 % 42 % 1015,7 hPa 0,0 l/m 0,6 km/h (0 Bft) SW 225 0 min 9,7 C 15,1 C 1,8 km/h (1 Bft)
21.10.2017 12:26 13,5 C 12,9 C 13,6 C 15,1 C 15,1 C 1,6 C 78 % 81 % 42 % 1015,7 hPa 0,0 l/m 0,6 km/h (0 Bft) SW 225 0 min 9,7 C 15,1 C 1,8 km/h (1 Bft)
21.10.2017 12:28 13,5 C 12,9 C 13,6 C 15,1 C 15,1 C 1,6 C 78 % 81 % 42 % 1015,7 hPa 0,0 l/m 0,6 km/h (0 Bft) SW 225 0 min 9,7 C 15,1 C 1,8 km/h (1 Bft)
21.10.2017 12:39 13,7 C 12,9 C 14,0 C 16,6 C 16,6 C 2,9 C 77 % 80 % 76 % 1015,7 hPa 0,0 l/m 0,3 km/h (0 Bft) S-SW 202 0 min 9,7 C 16,6 C 3,2 km/h (1 Bft)
21.10.2017 12:40 13,7 C 12,9 C 14,0 C 16,6 C 16,6 C 2,9 C 77 % 80 % 76 % 1015,7 hPa 0,0 l/m 0,3 km/h (0 Bft) S-SW 202 0 min 9,7 C 16,6 C 3,2 km/h (1 Bft)
21.10.2017 12:41 13,7 C 12,9 C 14,0 C 16,6 C 16,6 C 2,9 C 77 % 80 % 76 % 1015,7 hPa 0,0 l/m 0,3 km/h (0 Bft) S-SW 202 0 min 9,7 C 16,6 C 3,2 km/h (1 Bft)
21.10.2017 12:42 13,7 C 12,9 C 14,0 C 16,6 C 16,6 C 2,9 C 77 % 80 % 76 % 1015,7 hPa 0,0 l/m 0,3 km/h (0 Bft) S-SW 202 0 min 9,7 C 16,6 C 3,2 km/h (1 Bft)
21.10.2017 12:43 13,7 C 12,9 C 14,0 C 16,6 C 16,6 C 2,9 C 77 % 80 % 76 % 1015,7 hPa 0,0 l/m 0,3 km/h (0 Bft) S-SW 202 0 min 9,7 C 16,6 C 3,2 km/h (1 Bft)
21.10.2017 12:45 14,0 C 12,9 C 14,5 C 18,5 C 18,5 C 4,5 C 76 % 79 % 100 % 1015,1 hPa 0,0 l/m 0,8 km/h (0 Bft) S-SW 202 2 min 9,8 C 18,5 C 0,0 km/h (0 Bft)
21.10.2017 12:56 14,7 C 12,9 C 15,1 C 21,8 C 21,8 C 7,1 C 72 % 76 % 100 % 1015,1 hPa 0,0 l/m 3,1 km/h (1 Bft) W-SW 247 11 min 9,7 C 21,8 C 12,4 km/h (3 Bft)
21.10.2017 12:57 14,7 C 12,9 C 15,1 C 21,8 C 21,8 C 7,1 C 72 % 76 % 100 % 1015,1 hPa 0,0 l/m 3,1 km/h (1 Bft) W-SW 247 1 min 9,7 C 21,8 C 12,4 km/h (3 Bft)
21.10.2017 12:58 14,7 C 12,9 C 15,1 C 21,8 C 21,8 C 7,1 C 72 % 76 % 100 % 1015,1 hPa 0,0 l/m 3,1 km/h (1 Bft) W-SW 247 1 min 9,7 C 21,8 C 12,4 km/h (3 Bft)
21.10.2017 12:59 14,8 C 13,0 C 15,1 C 21,5 C 21,5 C 6,7 C 72 % 76 % 100 % 1015,1 hPa 0,0 l/m 4,8 km/h (1 Bft) W-SW 247 1 min 9,8 C 21,5 C 7,1 km/h (2 Bft)
21.10.2017 13:00 14,8 C 13,0 C 15,1 C 21,5 C 21,5 C 6,7 C 72 % 76 % 100 % 1015,1 hPa 0,0 l/m 4,8 km/h (1 Bft) W-SW 247 1 min 9,8 C 21,5 C 7,1 km/h (2 Bft)
21.10.2017 13:02 14,8 C 13,0 C 15,1 C 21,5 C 21,5 C 6,7 C 72 % 76 % 100 % 1015,1 hPa 0,0 l/m 4,8 km/h (1 Bft) W-SW 247 2 min 9,8 C 21,5 C 7,1 km/h (2 Bft)
21.10.2017 13:13 15,1 C 12,9 C 15,0 C 21,3 C 21,3 C 6,2 C 71 % 75 % 100 % 1014,8 hPa 0,0 l/m 2,9 km/h (1 Bft) N-NO 22 11 min 9,9 C 21,3 C 2,3 km/h (1 Bft)
21.10.2017 13:14 15,1 C 12,9 C 15,0 C 21,3 C 21,3 C 6,2 C 71 % 75 % 100 % 1014,8 hPa 0,0 l/m 2,9 km/h (1 Bft) N-NO 22 1 min 9,9 C 21,3 C 2,3 km/h (1 Bft)
21.10.2017 13:15 15,1 C 12,9 C 15,0 C 21,3 C 21,3 C 6,2 C 71 % 75 % 100 % 1014,8 hPa 0,0 l/m 2,9 km/h (1 Bft) N-NO 22 1 min 9,9 C 21,3 C 2,3 km/h (1 Bft)
21.10.2017 13:16 15,1 C 12,9 C 15,0 C 21,3 C 21,3 C 6,2 C 71 % 75 % 100 % 1014,8 hPa 0,0 l/m 2,9 km/h (1 Bft) N-NO 22 1 min 9,9 C 21,3 C 2,3 km/h (1 Bft)
21.10.2017 13:17 15,1 C 12,9 C 15,0 C 21,3 C 21,3 C 6,2 C 71 % 75 % 100 % 1014,8 hPa 0,0 l/m 2,9 km/h (1 Bft) N-NO 22 1 min 9,9 C 21,3 C 2,3 km/h (1 Bft)
21.10.2017 13:19 15,2 C 12,9 C 15,1 C 20,5 C 20,5 C 5,3 C 70 % 75 % 100 % 1014,8 hPa 0,0 l/m 3,5 km/h (1 Bft) S-SW 202 2 min 9,8 C 20,5 C 10,9 km/h (2 Bft)
21.10.2017 13:30 15,5 C 12,9 C 15,1 C 20,3 C 20,3 C 4,8 C 69 % 74 % 100 % 1014,5 hPa 0,0 l/m 4,3 km/h (1 Bft) NW 315 11 min 9,8 C 20,3 C 2,6 km/h (1 Bft)
21.10.2017 13:31 15,5 C 12,9 C 15,1 C 20,3 C 20,3 C 4,8 C 69 % 74 % 100 % 1014,5 hPa 0,0 l/m 4,3 km/h (1 Bft) NW 315 1 min 9,8 C 20,3 C 2,6 km/h (1 Bft)
21.10.2017 13:32 15,5 C 12,9 C 15,1 C 20,3 C 20,3 C 4,8 C 69 % 74 % 100 % 1014,5 hPa 0,0 l/m 4,3 km/h (1 Bft) NW 315 1 min 9,8 C 20,3 C 2,6 km/h (1 Bft)
21.10.2017 13:33 15,5 C 12,9 C 15,1 C 20,3 C 20,3 C 4,8 C 69 % 74 % 100 % 1014,5 hPa 0,0 l/m 4,3 km/h (1 Bft) NW 315 1 min 9,8 C 20,3 C 2,6 km/h (1 Bft)
21.10.2017 13:34 15,5 C 12,9 C 15,2 C 19,5 C 19,5 C 4,0 C 69 % 74 % 100 % 1014,5 hPa 0,0 l/m 2,9 km/h (1 Bft) SW 225 1 min 9,8 C 19,5 C 3,4 km/h (1 Bft)
21.10.2017 13:36 15,5 C 12,9 C 15,2 C 19,5 C 19,5 C 4,0 C 69 % 74 % 100 % 1014,5 hPa 0,0 l/m 2,9 km/h (1 Bft) SW 225 2 min 9,8 C 19,5 C 3,4 km/h (1 Bft)
21.10.2017 13:47 15,9 C 13,0 C 15,5 C 18,5 C 18,5 C 2,6 C 68 % 73 % 68 % 1014,3 hPa 0,0 l/m 3,5 km/h (1 Bft) W-SW 247 0 min 10,0 C 18,5 C 3,7 km/h (1 Bft)
21.10.2017 13:48 15,9 C 13,0 C 15,5 C 18,5 C 18,5 C 2,6 C 68 % 73 % 68 % 1014,3 hPa 0,0 l/m 3,5 km/h (1 Bft) W-SW 247 0 min 10,0 C 18,5 C 3,7 km/h (1 Bft)
21.10.2017 13:49 15,9 C 13,0 C 15,5 C 18,3 C 18,3 C 2,4 C 68 % 74 % 63 % 1014,3 hPa 0,0 l/m 3,9 km/h (1 Bft) W-SW 247 0 min 10,0 C 18,3 C 4,7 km/h (1 Bft)
21.10.2017 13:50 15,9 C 13,0 C 15,5 C 18,3 C 18,3 C 2,4 C 68 % 74 % 63 % 1014,3 hPa 0,0 l/m 3,9 km/h (1 Bft) W-SW 247 0 min 10,0 C 18,3 C 4,7 km/h (1 Bft)
21.10.2017 13:51 15,9 C 13,0 C 15,5 C 18,3 C 18,3 C 2,4 C 68 % 74 % 63 % 1014,3 hPa 0,0 l/m 3,9 km/h (1 Bft) W-SW 247 0 min 10,0 C 18,3 C 4,7 km/h (1 Bft)
21.10.2017 13:53 15,9 C 13,0 C 15,5 C 18,3 C 18,3 C 2,4 C 68 % 74 % 63 % 1014,3 hPa 0,0 l/m 3,9 km/h (1 Bft) W-SW 247 0 min 10,0 C 18,3 C 4,7 km/h (1 Bft)
21.10.2017 14:04 16,3 C 13,0 C 15,9 C 17,9 C 17,9 C 1,6 C 67 % 73 % 42 % 1014,0 hPa 0,0 l/m 5,8 km/h (2 Bft) W-SW 247 0 min 10,2 C 17,9 C 7,2 km/h (2 Bft)
21.10.2017 14:05 16,3 C 13,0 C 15,9 C 17,9 C 17,9 C 1,6 C 67 % 73 % 42 % 1014,0 hPa 0,0 l/m 5,8 km/h (2 Bft) W-SW 247 0 min 10,2 C 17,9 C 7,2 km/h (2 Bft)
21.10.2017 14:06 16,3 C 13,0 C 15,9 C 17,9 C 17,9 C 1,6 C 67 % 73 % 42 % 1014,0 hPa 0,0 l/m 5,8 km/h (2 Bft) W-SW 247 0 min 10,2 C 17,9 C 7,2 km/h (2 Bft)
21.10.2017 14:07 16,3 C 13,0 C 15,9 C 17,9 C 17,9 C 1,6 C 67 % 73 % 42 % 1014,0 hPa 0,0 l/m 5,8 km/h (2 Bft) W-SW 247 0 min 10,2 C 17,9 C 7,2 km/h (2 Bft)
21.10.2017 14:08 16,3 C 13,0 C 15,9 C 17,9 C 17,9 C 1,6 C 67 % 73 % 42 % 1014,0 hPa 0,0 l/m 5,8 km/h (2 Bft) W-SW 247 0 min 10,2 C 17,9 C 7,2 km/h (2 Bft)
21.10.2017 14:10 16,3 C 13,0 C 16,1 C 18,4 C 18,4 C 2,1 C 66 % 72 % 55 % 1014,0 hPa 0,0 l/m 5,8 km/h (2 Bft) S-SO 157 0 min 9,9 C 18,4 C 5,0 km/h (1 Bft)
21.10.2017 14:21 16,4 C 13,0 C 16,1 C 18,2 C 18,2 C 1,8 C 66 % 72 % 47 % 1014,0 hPa 0,0 l/m 4,0 km/h (1 Bft) O-NO 67 0 min 10,0 C 18,2 C 2,6 km/h (1 Bft)
21.10.2017 14:22 16,4 C 13,0 C 16,1 C 18,2 C 18,2 C 1,8 C 66 % 72 % 47 % 1014,0 hPa 0,0 l/m 4,0 km/h (1 Bft) O-NO 67 0 min 10,0 C 18,2 C 2,6 km/h (1 Bft)
21.10.2017 14:23 16,4 C 13,0 C 16,1 C 18,2 C 18,2 C 1,8 C 66 % 72 % 47 % 1014,0 hPa 0,0 l/m 4,0 km/h (1 Bft) O-NO 67 0 min 10,0 C 18,2 C 2,6 km/h (1 Bft)
21.10.2017 14:24 16,6 C 13,1 C 16,3 C 18,9 C 18,9 C 2,3 C 66 % 72 % 61 % 1013,9 hPa 0,0 l/m 3,9 km/h (1 Bft) W-SW 247 0 min 10,2 C 18,9 C 4,5 km/h (1 Bft)
21.10.2017 14:25 16,6 C 13,1 C 16,3 C 18,9 C 18,9 C 2,3 C 66 % 72 % 61 % 1013,9 hPa 0,0 l/m 3,9 km/h (1 Bft) W-SW 247 0 min 10,2 C 18,9 C 4,5 km/h (1 Bft)
21.10.2017 14:27 16,6 C 13,1 C 16,3 C 18,9 C 18,9 C 2,3 C 66 % 72 % 61 % 1013,9 hPa 0,0 l/m 3,9 km/h (1 Bft) W-SW 247 0 min 10,2 C 18,9 C 4,5 km/h (1 Bft)
21.10.2017 14:38 17,1 C 13,1 C 16,8 C 20,8 C 20,8 C 3,7 C 66 % 72 % 97 % 1013,9 hPa 0,0 l/m 3,5 km/h (1 Bft) W-SW 247 11 min 10,7 C 20,8 C 5,3 km/h (1 Bft)
21.10.2017 14:39 17,1 C 13,1 C 16,8 C 20,8 C 20,8 C 3,7 C 66 % 72 % 97 % 1013,9 hPa 0,0 l/m 3,5 km/h (1 Bft) W-SW 247 1 min 10,7 C 20,8 C 5,3 km/h (1 Bft)
21.10.2017 14:40 17,1 C 13,1 C 16,8 C 20,8 C 20,8 C 3,7 C 66 % 72 % 97 % 1013,9 hPa 0,0 l/m 3,5 km/h (1 Bft) W-SW 247 1 min 10,7 C 20,8 C 5,3 km/h (1 Bft)
21.10.2017 14:41 17,1 C 13,1 C 16,8 C 20,8 C 20,8 C 3,7 C 66 % 72 % 97 % 1013,9 hPa 0,0 l/m 3,5 km/h (1 Bft) W-SW 247 1 min 10,7 C 20,8 C 5,3 km/h (1 Bft)
21.10.2017 14:42 17,1 C 13,1 C 16,8 C 20,8 C 20,8 C 3,7 C 66 % 72 % 97 % 1013,9 hPa 0,0 l/m 3,5 km/h (1 Bft) W-SW 247 1 min 10,7 C 20,8 C 5,3 km/h (1 Bft)
21.10.2017 14:44 17,0 C 13,1 C 16,8 C 19,9 C 19,9 C 2,9 C 65 % 70 % 76 % 1013,9 hPa 0,0 l/m 4,7 km/h (1 Bft) SW 225 0 min 10,4 C 19,9 C 4,5 km/h (1 Bft)
21.10.2017 14:55 17,5 C 13,2 C 17,3 C 20,0 C 20,0 C 2,5 C 64 % 70 % 66 % 1013,9 hPa 0,0 l/m 4,7 km/h (1 Bft) SW 225 0 min 10,6 C 20,0 C 9,7 km/h (2 Bft)
21.10.2017 14:56 17,5 C 13,2 C 17,3 C 20,0 C 20,0 C 2,5 C 64 % 70 % 66 % 1013,9 hPa 0,0 l/m 4,7 km/h (1 Bft) SW 225 0 min 10,6 C 20,0 C 9,7 km/h (2 Bft)
21.10.2017 14:57 17,5 C 13,2 C 17,3 C 20,0 C 20,0 C 2,5 C 64 % 70 % 66 % 1013,9 hPa 0,0 l/m 4,7 km/h (1 Bft) SW 225 0 min 10,6 C 20,0 C 9,7 km/h (2 Bft)
21.10.2017 14:58 17,5 C 13,2 C 17,3 C 20,0 C 20,0 C 2,5 C 64 % 70 % 66 % 1013,9 hPa 0,0 l/m 4,7 km/h (1 Bft) SW 225 0 min 10,6 C 20,0 C 9,7 km/h (2 Bft)
21.10.2017 14:59 17,5 C 13,2 C 17,5 C 20,0 C 20,0 C 2,5 C 64 % 70 % 66 % 1013,9 hPa 0,0 l/m 4,8 km/h (1 Bft) W-SW 247 0 min 10,6 C 20,0 C 5,5 km/h (1 Bft)
21.10.2017 15:01 17,5 C 13,2 C 17,5 C 20,0 C 20,0 C 2,5 C 64 % 70 % 66 % 1013,9 hPa 0,0 l/m 4,8 km/h (1 Bft) W-SW 247 0 min 10,6 C 20,0 C 5,5 km/h (1 Bft)
21.10.2017 15:12 17,7 C 13,2 C 17,9 C 21,4 C 21,4 C 3,7 C 64 % 69 % 97 % 1013,6 hPa 0,0 l/m 6,1 km/h (2 Bft) W-SW 247 11 min 10,8 C 21,4 C 9,0 km/h (2 Bft)
21.10.2017 15:13 17,7 C 13,2 C 17,9 C 21,4 C 21,4 C 3,7 C 64 % 69 % 97 % 1013,6 hPa 0,0 l/m 6,1 km/h (2 Bft) W-SW 247 1 min 10,8 C 21,4 C 9,0 km/h (2 Bft)
21.10.2017 15:14 17,8 C 13,2 C 18,0 C 21,9 C 21,9 C 4,1 C 65 % 68 % 100 % 1013,6 hPa 0,0 l/m 5,3 km/h (1 Bft) NO 45 1 min 11,1 C 21,9 C 3,4 km/h (1 Bft)
21.10.2017 15:15 17,8 C 13,2 C 18,0 C 21,9 C 21,9 C 4,1 C 65 % 68 % 100 % 1013,6 hPa 0,0 l/m 5,3 km/h (1 Bft) NO 45 1 min 11,1 C 21,9 C 3,4 km/h (1 Bft)
21.10.2017 15:16 17,8 C 13,2 C 18,0 C 21,9 C 21,9 C 4,1 C 65 % 68 % 100 % 1013,6 hPa 0,0 l/m 5,3 km/h (1 Bft) NO 45 1 min 11,1 C 21,9 C 3,4 km/h (1 Bft)
21.10.2017 15:18 17,8 C 13,2 C 18,0 C 21,9 C 21,9 C 4,1 C 65 % 68 % 100 % 1013,6 hPa 0,0 l/m 5,3 km/h (1 Bft) NO 45 2 min 11,1 C 21,9 C 3,4 km/h (1 Bft)
21.10.2017 15:29 17,5 C 13,3 C 17,5 C 19,6 C 19,6 C 2,1 C 64 % 68 % 55 % 1013,6 hPa 0,0 l/m 4,3 km/h (1 Bft) W-NW 292 0 min 10,6 C 19,6 C 7,6 km/h (2 Bft)
21.10.2017 15:30 17,5 C 13,3 C 17,5 C 19,6 C 19,6 C 2,1 C 64 % 68 % 55 % 1013,6 hPa 0,0 l/m 4,3 km/h (1 Bft) W-NW 292 0 min 10,6 C 19,6 C 7,6 km/h (2 Bft)
21.10.2017 15:31 17,5 C 13,3 C 17,5 C 19,6 C 19,6 C 2,1 C 64 % 68 % 55 % 1013,6 hPa 0,0 l/m 4,3 km/h (1 Bft) W-NW 292 0 min 10,6 C 19,6 C 7,6 km/h (2 Bft)
21.10.2017 15:32 17,5 C 13,3 C 17,5 C 19,6 C 19,6 C 2,1 C 64 % 68 % 55 % 1013,6 hPa 0,0 l/m 4,3 km/h (1 Bft) W-NW 292 0 min 10,6 C 19,6 C 7,6 km/h (2 Bft)
21.10.2017 15:33 17,5 C 13,3 C 17,5 C 19,6 C 19,6 C 2,1 C 64 % 68 % 55 % 1013,6 hPa 0,0 l/m 4,3 km/h (1 Bft) W-NW 292 0 min 10,6 C 19,6 C 7,6 km/h (2 Bft)
21.10.2017 15:35 17,4 C 13,3 C 17,5 C 19,1 C 19,1 C 1,7 C 65 % 69 % 45 % 1013,6 hPa 0,0 l/m 4,5 km/h (1 Bft) W-SW 247 0 min 10,8 C 19,1 C 4,0 km/h (1 Bft)
21.10.2017 15:46 17,5 C 13,3 C 17,6 C 19,2 C 19,2 C 1,7 C 66 % 70 % 45 % 1013,3 hPa 0,0 l/m 1,0 km/h (0 Bft) SO 135 0 min 11,1 C 19,2 C 0,0 km/h (0 Bft)
21.10.2017 15:47 17,5 C 13,3 C 17,6 C 19,2 C 19,2 C 1,7 C 66 % 70 % 45 % 1013,3 hPa 0,0 l/m 1,0 km/h (0 Bft) SO 135 0 min 11,1 C 19,2 C 0,0 km/h (0 Bft)
21.10.2017 15:48 17,5 C 13,3 C 17,6 C 19,2 C 19,2 C 1,7 C 66 % 70 % 45 % 1013,3 hPa 0,0 l/m 1,0 km/h (0 Bft) SO 135 0 min 11,1 C 19,2 C 0,0 km/h (0 Bft)
21.10.2017 15:49 17,7 C 13,3 C 17,5 C 19,3 C 19,3 C 1,6 C 66 % 70 % 42 % 1013,3 hPa 0,0 l/m 0,6 km/h (0 Bft) W-SW 247 0 min 11,3 C 19,3 C 1,9 km/h (1 Bft)
21.10.2017 15:50 17,7 C 13,3 C 17,5 C 19,3 C 19,3 C 1,6 C 66 % 70 % 42 % 1013,3 hPa 0,0 l/m 0,6 km/h (0 Bft) W-SW 247 0 min 11,3 C 19,3 C 1,9 km/h (1 Bft)
21.10.2017 15:52 17,7 C 13,3 C 17,5 C 19,3 C 19,3 C 1,6 C 66 % 70 % 42 % 1013,3 hPa 0,0 l/m 0,6 km/h (0 Bft) W-SW 247 0 min 11,3 C 19,3 C 1,9 km/h (1 Bft)
21.10.2017 16:03 17,4 C 13,4 C 17,0 C 18,3 C 18,3 C 0,9 C 66 % 71 % 24 % 1013,1 hPa 0,0 l/m 1,3 km/h (1 Bft) SW 225 0 min 11,0 C 18,3 C 4,5 km/h (1 Bft)
21.10.2017 16:04 17,4 C 13,4 C 17,0 C 18,3 C 18,3 C 0,9 C 66 % 71 % 24 % 1013,1 hPa 0,0 l/m 1,3 km/h (1 Bft) SW 225 0 min 11,0 C 18,3 C 4,5 km/h (1 Bft)
21.10.2017 16:05 17,4 C 13,4 C 17,0 C 18,3 C 18,3 C 0,9 C 66 % 71 % 24 % 1013,1 hPa 0,0 l/m 1,3 km/h (1 Bft) SW 225 0 min 11,0 C 18,3 C 4,5 km/h (1 Bft)
21.10.2017 16:06 17,4 C 13,4 C 17,0 C 18,3 C 18,3 C 0,9 C 66 % 71 % 24 % 1013,1 hPa 0,0 l/m 1,3 km/h (1 Bft) SW 225 0 min 11,0 C 18,3 C 4,5 km/h (1 Bft)
21.10.2017 16:07 17,4 C 13,4 C 17,0 C 18,3 C 18,3 C 0,9 C 66 % 71 % 24 % 1013,1 hPa 0,0 l/m 1,3 km/h (1 Bft) SW 225 0 min 11,0 C 18,3 C 4,5 km/h (1 Bft)
21.10.2017 16:09 17,4 C 13,4 C 16,9 C 17,9 C 17,9 C 0,5 C 66 % 72 % 13 % 1013,1 hPa 0,0 l/m 1,3 km/h (1 Bft) S-SO 157 0 min 11,0 C 17,9 C 3,7 km/h (1 Bft)
21.10.2017 16:20 17,0 C 13,4 C 16,6 C 17,1 C 17,1 C 0,1 C 68 % 73 % 3 % 1013,1 hPa 0,0 l/m 1,3 km/h (1 Bft) S 180 0 min 11,0 C 17,1 C 0,0 km/h (0 Bft)
21.10.2017 16:21 17,0 C 13,4 C 16,6 C 17,1 C 17,1 C 0,1 C 68 % 73 % 3 % 1013,1 hPa 0,0 l/m 1,3 km/h (1 Bft) S 180 0 min 11,0 C 17,1 C 0,0 km/h (0 Bft)
21.10.2017 16:22 17,0 C 13,4 C 16,6 C 17,1 C 17,1 C 0,1 C 68 % 73 % 3 % 1013,1 hPa 0,0 l/m 1,3 km/h (1 Bft) S 180 0 min 11,0 C 17,1 C 0,0 km/h (0 Bft)
21.10.2017 16:23 17,0 C 13,4 C 16,6 C 17,1 C 17,1 C 0,1 C 68 % 73 % 3 % 1013,1 hPa 0,0 l/m 1,3 km/h (1 Bft) S 180 0 min 11,0 C 17,1 C 0,0 km/h (0 Bft)
21.10.2017 16:24 16,9 C 13,4 C 16,4 C 17,0 C 17,0 C 0,1 C 68 % 73 % 3 % 1013,3 hPa 0,0 l/m 0,6 km/h (0 Bft) N-NO 22 0 min 11,0 C 17,0 C 2,9 km/h (1 Bft)
21.10.2017 16:26 16,9 C 13,4 C 16,4 C 17,0 C 17,0 C 0,1 C 68 % 73 % 3 % 1013,3 hPa 0,0 l/m 0,6 km/h (0 Bft) N-NO 22 0 min 11,0 C 17,0 C 2,9 km/h (1 Bft)
21.10.2017 16:37 16,8 C 13,4 C 16,1 C 16,7 C 16,6 C 0,0 C 68 % 74 % 0 % 1013,3 hPa 0,0 l/m 1,1 km/h (1 Bft) SO 135 0 min 10,9 C 16,6 C 1,9 km/h (1 Bft)
21.10.2017 16:38 16,8 C 13,4 C 16,1 C 16,7 C 16,6 C 0,0 C 68 % 74 % 0 % 1013,3 hPa 0,0 l/m 1,1 km/h (1 Bft) SO 135 0 min 10,9 C 16,6 C 1,9 km/h (1 Bft)
21.10.2017 16:39 16,7 C 13,5 C 16,1 C 16,7 C 16,6 C 0,0 C 69 % 74 % 0 % 1013,3 hPa 0,0 l/m 1,0 km/h (0 Bft) SW 225 0 min 11,0 C 16,6 C 0,0 km/h (0 Bft)
21.10.2017 16:40 16,7 C 13,5 C 16,1 C 16,7 C 16,6 C 0,0 C 69 % 74 % 0 % 1013,3 hPa 0,0 l/m 1,0 km/h (0 Bft) SW 225 0 min 11,0 C 16,6 C 0,0 km/h (0 Bft)
21.10.2017 16:41 16,7 C 13,5 C 16,1 C 16,7 C 16,6 C 0,0 C 69 % 74 % 0 % 1013,3 hPa 0,0 l/m 1,0 km/h (0 Bft) SW 225 0 min 11,0 C 16,6 C 0,0 km/h (0 Bft)
21.10.2017 16:43 16,7 C 13,5 C 16,1 C 16,7 C 16,6 C 0,0 C 69 % 74 % 0 % 1013,3 hPa 0,0 l/m 1,0 km/h (0 Bft) SW 225 0 min 11,0 C 16,6 C 0,0 km/h (0 Bft)
21.10.2017 16:54 16,2 C 13,6 C 15,3 C 15,7 C 14,6 C 0,0 C 72 % 78 % 0 % 1013,1 hPa 0,0 l/m 0,6 km/h (0 Bft) W-SW 247 0 min 11,1 C 14,6 C 0,0 km/h (0 Bft)
21.10.2017 16:55 16,2 C 13,6 C 15,3 C 15,7 C 14,6 C 0,0 C 72 % 78 % 0 % 1013,1 hPa 0,0 l/m 0,6 km/h (0 Bft) W-SW 247 0 min 11,1 C 14,6 C 0,0 km/h (0 Bft)
21.10.2017 16:56 16,2 C 13,6 C 15,3 C 15,7 C 14,6 C 0,0 C 72 % 78 % 0 % 1013,1 hPa 0,0 l/m 0,6 km/h (0 Bft) W-SW 247 0 min 11,1 C 14,6 C 0,0 km/h (0 Bft)
21.10.2017 16:57 16,2 C 13,6 C 15,3 C 15,7 C 14,6 C 0,0 C 72 % 78 % 0 % 1013,1 hPa 0,0 l/m 0,6 km/h (0 Bft) W-SW 247 0 min 11,1 C 14,6 C 0,0 km/h (0 Bft)
21.10.2017 16:58 16,2 C 13,6 C 15,3 C 15,7 C 14,6 C 0,0 C 72 % 78 % 0 % 1013,1 hPa 0,0 l/m 0,6 km/h (0 Bft) W-SW 247 0 min 11,1 C 14,6 C 0,0 km/h (0 Bft)
21.10.2017 17:00 16,1 C 13,6 C 15,1 C 15,5 C 14,2 C 0,0 C 73 % 80 % 0 % 1013,1 hPa 0,0 l/m 0,5 km/h (0 Bft) W 270 0 min 11,3 C 14,2 C 0,0 km/h (0 Bft)
21.10.2017 17:11 15,9 C 14,0 C 14,6 C 15,2 C 13,7 C 0,0 C 75 % 82 % 0 % 1013,2 hPa 0,0 l/m 0,0 km/h (0 Bft) W-SW 247 0 min 11,5 C 13,7 C 0,0 km/h (0 Bft)
21.10.2017 17:12 15,9 C 14,0 C 14,6 C 15,2 C 13,7 C 0,0 C 75 % 82 % 0 % 1013,2 hPa 0,0 l/m 0,0 km/h (0 Bft) W-SW 247 0 min 11,5 C 13,7 C 0,0 km/h (0 Bft)
21.10.2017 17:13 15,9 C 14,0 C 14,6 C 15,2 C 13,7 C 0,0 C 75 % 82 % 0 % 1013,2 hPa 0,0 l/m 0,0 km/h (0 Bft) W-SW 247 0 min 11,5 C 13,7 C 0,0 km/h (0 Bft)
21.10.2017 17:14 15,6 C 14,0 C 14,4 C 14,9 C 13,6 C 0,0 C 76 % 83 % 0 % 1013,2 hPa 0,0 l/m 0,0 km/h (0 Bft) S-SO 157 0 min 11,4 C 13,6 C 0,0 km/h (0 Bft)
21.10.2017 17:15 15,6 C 14,0 C 14,4 C 14,9 C 13,6 C 0,0 C 76 % 83 % 0 % 1013,2 hPa 0,0 l/m 0,0 km/h (0 Bft) S-SO 157 0 min 11,4 C 13,6 C 0,0 km/h (0 Bft)
21.10.2017 17:17 15,6 C 14,0 C 14,4 C 14,9 C 13,6 C 0,0 C 76 % 83 % 0 % 1013,2 hPa 0,0 l/m 0,0 km/h (0 Bft) S-SO 157 0 min 11,4 C 13,6 C 0,0 km/h (0 Bft)
21.10.2017 17:28 15,2 C 14,1 C 14,0 C 14,6 C 13,3 C 0,0 C 78 % 84 % 0 % 1013,5 hPa 0,0 l/m 0,0 km/h (0 Bft) W-SW 247 0 min 11,4 C 13,3 C 0,0 km/h (0 Bft)
21.10.2017 17:29 15,2 C 14,1 C 14,0 C 14,6 C 13,3 C 0,0 C 78 % 84 % 0 % 1013,5 hPa 0,0 l/m 0,0 km/h (0 Bft) W-SW 247 0 min 11,4 C 13,3 C 0,0 km/h (0 Bft)
21.10.2017 17:30 15,2 C 14,1 C 14,0 C 14,6 C 13,3 C 0,0 C 78 % 84 % 0 % 1013,5 hPa 0,0 l/m 0,0 km/h (0 Bft) W-SW 247 0 min 11,4 C 13,3 C 0,0 km/h (0 Bft)
21.10.2017 17:31 15,2 C 14,1 C 14,0 C 14,6 C 13,3 C 0,0 C 78 % 84 % 0 % 1013,5 hPa 0,0 l/m 0,0 km/h (0 Bft) W-SW 247 0 min 11,4 C 13,3 C 0,0 km/h (0 Bft)
21.10.2017 17:32 15,2 C 14,1 C 14,0 C 14,6 C 13,3 C 0,0 C 78 % 84 % 0 % 1013,5 hPa 0,0 l/m 0,0 km/h (0 Bft) W-SW 247 0 min 11,4 C 13,3 C 0,0 km/h (0 Bft)
21.10.2017 17:34 15,0 C 14,1 C 13,9 C 14,4 C 13,3 C 0,0 C 79 % 85 % 0 % 1013,5 hPa 0,0 l/m 0,0 km/h (0 Bft) W-SW 247 0 min 11,4 C 13,3 C 0,0 km/h (0 Bft)
21.10.2017 17:45 14,8 C 14,2 C 13,6 C 14,3 C 13,3 C 0,0 C 80 % 85 % 0 % 1013,6 hPa 0,7 l/m 0,0 km/h (0 Bft) W-SW 247 0 min 11,4 C 13,3 C 0,0 km/h (0 Bft)
21.10.2017 17:46 14,8 C 14,2 C 13,6 C 14,3 C 13,3 C 0,0 C 80 % 85 % 0 % 1013,6 hPa 0,0 l/m 0,0 km/h (0 Bft) W-SW 247 0 min 11,4 C 13,3 C 0,0 km/h (0 Bft)
21.10.2017 17:47 14,8 C 14,2 C 13,6 C 14,3 C 13,3 C 0,0 C 80 % 85 % 0 % 1013,6 hPa 0,0 l/m 0,0 km/h (0 Bft) W-SW 247 0 min 11,4 C 13,3 C 0,0 km/h (0 Bft)
21.10.2017 17:48 14,8 C 14,2 C 13,6 C 14,3 C 13,3 C 0,0 C 80 % 85 % 0 % 1013,6 hPa 0,0 l/m 0,0 km/h (0 Bft) W-SW 247 0 min 11,4 C 13,3 C 0,0 km/h (0 Bft)
21.10.2017 17:49 14,8 C 14,2 C 13,6 C 14,3 C 13,3 C 0,0 C 80 % 85 % 0 % 1013,6 hPa 0,0 l/m 0,0 km/h (0 Bft) W-SW 247 0 min 11,4 C 13,3 C 0,0 km/h (0 Bft)
21.10.2017 17:51 14,8 C 14,2 C 13,6 C 14,3 C 13,3 C 0,0 C 80 % 85 % 0 % 1013,6 hPa 0,0 l/m 0,0 km/h (0 Bft) W-SW 247 0 min 11,4 C 13,3 C 0,0 km/h (0 Bft)
21.10.2017 18:02 14,5 C 14,2 C 13,5 C 14,1 C 13,2 C 0,0 C 82 % 85 % 0 % 1013,6 hPa 0,0 l/m 0,0 km/h (0 Bft) W-SW 247 0 min 11,5 C 13,2 C 0,0 km/h (0 Bft)
21.10.2017 18:03 14,5 C 14,2 C 13,5 C 14,1 C 13,2 C 0,0 C 82 % 85 % 0 % 1013,6 hPa 0,0 l/m 0,0 km/h (0 Bft) W-SW 247 0 min 11,5 C 13,2 C 0,0 km/h (0 Bft)
21.10.2017 18:04 14,3 C 14,2 C 13,3 C 13,9 C 13,2 C 0,0 C 83 % 84 % 0 % 1013,6 hPa 0,0 l/m 0,0 km/h (0 Bft) W-SW 247 0 min 11,5 C 13,2 C 0,0 km/h (0 Bft)
21.10.2017 18:05 14,3 C 14,2 C 13,3 C 13,9 C 13,2 C 0,0 C 83 % 84 % 0 % 1013,6 hPa 0,0 l/m 0,0 km/h (0 Bft) W-SW 247 0 min 11,5 C 13,2 C 0,0 km/h (0 Bft)
21.10.2017 18:06 14,3 C 14,2 C 13,3 C 13,9 C 13,2 C 0,0 C 83 % 84 % 0 % 1013,6 hPa 0,0 l/m 0,0 km/h (0 Bft) W-SW 247 0 min 11,5 C 13,2 C 0,0 km/h (0 Bft)
21.10.2017 18:08 14,3 C 14,2 C 13,3 C 13,9 C 13,2 C 0,0 C 83 % 84 % 0 % 1013,6 hPa 0,0 l/m 0,0 km/h (0 Bft) W-SW 247 0 min 11,5 C 13,2 C 0,0 km/h (0 Bft)
21.10.2017 18:19 13,8 C 14,2 C 13,3 C 13,6 C 13,1 C 0,0 C 83 % 82 % 0 % 1013,6 hPa 0,0 l/m 0,0 km/h (0 Bft) W-SW 247 0 min 11,0 C 13,1 C 0,0 km/h (0 Bft)
21.10.2017 18:20 13,8 C 14,2 C 13,3 C 13,6 C 13,1 C 0,0 C 83 % 82 % 0 % 1013,6 hPa 0,0 l/m 0,0 km/h (0 Bft) W-SW 247 0 min 11,0 C 13,1 C 0,0 km/h (0 Bft)
21.10.2017 18:21 13,8 C 14,2 C 13,3 C 13,6 C 13,1 C 0,0 C 83 % 82 % 0 % 1013,6 hPa 0,0 l/m 0,0 km/h (0 Bft) W-SW 247 0 min 11,0 C 13,1 C 0,0 km/h (0 Bft)
21.10.2017 18:22 13,8 C 14,2 C 13,3 C 13,6 C 13,1 C 0,0 C 83 % 82 % 0 % 1013,6 hPa 0,0 l/m 0,0 km/h (0 Bft) W-SW 247 0 min 11,0 C 13,1 C 0,0 km/h (0 Bft)
21.10.2017 18:23 13,8 C 14,2 C 13,3 C 13,6 C 13,1 C 0,0 C 83 % 82 % 0 % 1013,6 hPa 0,0 l/m 0,0 km/h (0 Bft) W-SW 247 0 min 11,0 C 13,1 C 0,0 km/h (0 Bft)
21.10.2017 18:25 13,7 C 14,2 C 13,2 C 13,5 C 13,1 C 0,0 C 84 % 81 % 0 % 1013,2 hPa 0,7 l/m 0,0 km/h (0 Bft) W-SW 247 0 min 11,0 C 13,1 C 0,0 km/h (0 Bft)
21.10.2017 18:36 13,5 C 14,2 C 13,2 C 13,4 C 13,1 C 0,0 C 84 % 79 % 0 % 1013,2 hPa 0,0 l/m 0,0 km/h (0 Bft) W-SW 247 0 min 10,8 C 13,1 C 0,0 km/h (0 Bft)
21.10.2017 18:37 13,5 C 14,2 C 13,2 C 13,4 C 13,1 C 0,0 C 84 % 79 % 0 % 1013,2 hPa 0,0 l/m 0,0 km/h (0 Bft) W-SW 247 0 min 10,8 C 13,1 C 0,0 km/h (0 Bft)
21.10.2017 18:38 13,5 C 14,2 C 13,2 C 13,4 C 13,1 C 0,0 C 84 % 79 % 0 % 1013,2 hPa 0,0 l/m 0,0 km/h (0 Bft) W-SW 247 0 min 10,8 C 13,1 C 0,0 km/h (0 Bft)
21.10.2017 18:39 13,3 C 14,2 C 13,3 C 13,2 C 13,1 C 0,0 C 84 % 78 % 0 % 1013,2 hPa 0,0 l/m 0,0 km/h (0 Bft) W-SW 247 0 min 10,7 C 13,1 C 0,0 km/h (0 Bft)
21.10.2017 18:40 13,3 C 14,2 C 13,3 C 13,2 C 13,1 C 0,0 C 84 % 78 % 0 % 1013,2 hPa 0,0 l/m 0,0 km/h (0 Bft) W-SW 247 0 min 10,7 C 13,1 C 0,0 km/h (0 Bft)
21.10.2017 18:42 13,3 C 14,2 C 13,3 C 13,2 C 13,1 C 0,0 C 84 % 78 % 0 % 1013,2 hPa 0,0 l/m 0,0 km/h (0 Bft) W-SW 247 0 min 10,7 C 13,1 C 0,0 km/h (0 Bft)
21.10.2017 18:53 13,1 C 14,2 C 13,3 C 13,2 C 13,2 C 0,1 C 85 % 76 % 0 % 1013,1 hPa 0,0 l/m 0,0 km/h (0 Bft) W-SW 247 0 min 10,6 C 13,2 C 0,0 km/h (0 Bft)
21.10.2017 18:54 13,1 C 14,2 C 13,3 C 13,2 C 13,2 C 0,1 C 85 % 76 % 0 % 1013,1 hPa 0,0 l/m 0,0 km/h (0 Bft) W-SW 247 0 min 10,6 C 13,2 C 0,0 km/h (0 Bft)
21.10.2017 18:55 13,1 C 14,2 C 13,3 C 13,2 C 13,2 C 0,1 C 85 % 76 % 0 % 1013,1 hPa 0,0 l/m 0,0 km/h (0 Bft) W-SW 247 0 min 10,6 C 13,2 C 0,0 km/h (0 Bft)
21.10.2017 18:56 13,1 C 14,2 C 13,3 C 13,2 C 13,2 C 0,1 C 85 % 76 % 0 % 1013,1 hPa 0,0 l/m 0,0 km/h (0 Bft) W-SW 247 0 min 10,6 C 13,2 C 0,0 km/h (0 Bft)
21.10.2017 18:57 13,1 C 14,2 C 13,3 C 13,2 C 13,2 C 0,1 C 85 % 76 % 0 % 1013,1 hPa 0,0 l/m 0,0 km/h (0 Bft) W-SW 247 0 min 10,6 C 13,2 C 0,0 km/h (0 Bft)
21.10.2017 18:59 13,1 C 14,2 C 13,3 C 13,2 C 13,2 C 0,1 C 85 % 75 % 0 % 1013,1 hPa 0,0 l/m 0,0 km/h (0 Bft) W-SW 247 0 min 10,6 C 13,2 C 0,0 km/h (0 Bft)
21.10.2017 19:10 13,0 C 14,2 C 13,5 C 13,2 C 13,2 C 0,2 C 85 % 74 % 0 % 1013,1 hPa 0,0 l/m 0,0 km/h (0 Bft) W-SW 247 0 min 10,5 C 13,2 C 0,0 km/h (0 Bft)
21.10.2017 19:11 13,0 C 14,2 C 13,5 C 13,2 C 13,2 C 0,2 C 85 % 74 % 0 % 1013,1 hPa 0,0 l/m 0,0 km/h (0 Bft) W-SW 247 0 min 10,5 C 13,2 C 0,0 km/h (0 Bft)
21.10.2017 19:12 13,0 C 14,2 C 13,5 C 13,2 C 13,2 C 0,2 C 85 % 74 % 0 % 1013,1 hPa 0,0 l/m 0,0 km/h (0 Bft) W-SW 247 0 min 10,5 C 13,2 C 0,0 km/h (0 Bft)
21.10.2017 19:13 13,0 C 14,2 C 13,5 C 13,2 C 13,2 C 0,2 C 85 % 74 % 0 % 1013,1 hPa 0,0 l/m 0,0 km/h (0 Bft) W-SW 247 0 min 10,5 C 13,2 C 0,0 km/h (0 Bft)
21.10.2017 19:14 12,9 C 14,2 C 13,3 C 13,1 C 13,1 C 0,2 C 85 % 73 % 0 % 1013,1 hPa 0,7 l/m 0,0 km/h (0 Bft) W-SW 247 0 min 10,4 C 13,1 C 0,0 km/h (0 Bft)
21.10.2017 19:16 12,9 C 14,2 C 13,3 C 13,1 C 13,1 C 0,2 C 85 % 73 % 0 % 1013,1 hPa 0,0 l/m 0,0 km/h (0 Bft) W-SW 247 0 min 10,4 C 13,1 C 0,0 km/h (0 Bft)
21.10.2017 19:27 12,8 C 14,2 C 13,5 C 13,2 C 13,2 C 0,4 C 85 % 73 % 0 % 1012,9 hPa 0,0 l/m 0,0 km/h (0 Bft) W-SW 247 0 min 10,3 C 13,2 C 0,0 km/h (0 Bft)
21.10.2017 19:28 12,8 C 14,2 C 13,5 C 13,2 C 13,2 C 0,4 C 85 % 73 % 0 % 1012,9 hPa 0,0 l/m 0,0 km/h (0 Bft) W-SW 247 0 min 10,3 C 13,2 C 0,0 km/h (0 Bft)
21.10.2017 19:32 12,7 C 14,2 C 13,5 C 13,1 C 13,1 C 0,4 C 85 % 72 % 0 % 1012,9 hPa 0,0 l/m 0,0 km/h (0 Bft) W-SW 247 0 min 10,2 C 13,1 C 0,0 km/h (0 Bft)
21.10.2017 19:38 12,7 C 14,2 C 13,5 C 13,1 C 13,1 C 0,4 C 85 % 72 % 0 % 1012,9 hPa 0,0 l/m 0,0 km/h (0 Bft) W-SW 247 0 min 10,2 C 13,1 C 0,0 km/h (0 Bft)
21.10.2017 19:40 12,7 C 14,2 C 13,5 C 13,1 C 13,1 C 0,4 C 85 % 72 % 0 % 1012,9 hPa 0,0 l/m 0,0 km/h (0 Bft) W-SW 247 0 min 10,2 C 13,1 C 0,0 km/h (0 Bft)
21.10.2017 19:45 12,5 C 14,3 C 13,5 C 13,1 C 13,1 C 0,6 C 85 % 71 % 0 % 1013,1 hPa 0,0 l/m 0,0 km/h (0 Bft) W-SW 247 0 min 10,0 C 13,1 C 0,0 km/h (0 Bft)
21.10.2017 19:50 12,5 C 14,3 C 13,5 C 13,1 C 13,1 C 0,6 C 85 % 71 % 0 % 1013,1 hPa 0,0 l/m 0,0 km/h (0 Bft) W-SW 247 0 min 10,0 C 13,1 C 0,0 km/h (0 Bft)
21.10.2017 19:55 12,5 C 14,3 C 13,5 C 13,1 C 13,1 C 0,6 C 86 % 70 % 0 % 1013,1 hPa 0,0 l/m 0,0 km/h (0 Bft) W-SW 247 0 min 10,2 C 13,1 C 0,0 km/h (0 Bft)
21.10.2017 20:00 12,4 C 14,3 C 13,5 C 13,1 C 13,1 C 0,7 C 86 % 70 % 0 % 1013,1 hPa 0,0 l/m 0,0 km/h (0 Bft) W-SW 247 0 min 10,1 C 13,1 C 0,0 km/h (0 Bft)
21.10.2017 20:05 12,5 C 14,3 C 13,3 C 13,1 C 13,1 C 0,6 C 86 % 70 % 0 % 1012,9 hPa 0,0 l/m 0,0 km/h (0 Bft) W-SW 247 0 min 10,2 C 13,1 C 0,0 km/h (0 Bft)
21.10.2017 20:11 12,4 C 14,3 C 13,3 C 13,0 C 13,0 C 0,6 C 86 % 70 % 0 % 1012,9 hPa 0,0 l/m 0,0 km/h (0 Bft) N 0 0 min 10,1 C 13,0 C 0,0 km/h (0 Bft)
21.10.2017 20:23 12,3 C 14,3 C 13,3 C 13,1 C 13,1 C 0,8 C 86 % 68 % 0 % 1012,6 hPa 0,7 l/m 0,0 km/h (0 Bft) W-SW 247 0 min 10,0 C 13,1 C 0,0 km/h (0 Bft)
21.10.2017 20:25 12,3 C 14,3 C 13,3 C 13,1 C 13,1 C 0,8 C 86 % 68 % 0 % 1012,6 hPa 0,0 l/m 0,0 km/h (0 Bft) W-SW 247 0 min 10,0 C 13,1 C 0,0 km/h (0 Bft)
21.10.2017 20:30 12,3 C 14,3 C 13,3 C 13,1 C 13,1 C 0,8 C 86 % 68 % 0 % 1012,6 hPa 0,7 l/m 0,0 km/h (0 Bft) W-SW 247 0 min 10,0 C 13,1 C 0,0 km/h (0 Bft)
21.10.2017 20:35 12,3 C 14,3 C 13,4 C 13,1 C 13,1 C 0,8 C 86 % 67 % 0 % 1012,6 hPa 0,0 l/m 0,0 km/h (0 Bft) S 180 0 min 10,0 C 13,1 C 0,0 km/h (0 Bft)
21.10.2017 20:40 12,3 C 14,3 C 13,4 C 13,2 C 13,2 C 0,9 C 86 % 67 % 0 % 1012,6 hPa 0,0 l/m 0,0 km/h (0 Bft) W-SW 247 0 min 10,0 C 13,2 C 0,0 km/h (0 Bft)
21.10.2017 20:45 12,2 C 14,3 C 13,5 C 13,2 C 13,2 C 1,0 C 86 % 67 % 0 % 1012,3 hPa 0,0 l/m 0,0 km/h (0 Bft) W-SW 247 0 min 9,9 C 13,2 C 0,0 km/h (0 Bft)
21.10.2017 20:50 12,3 C 14,3 C 13,3 C 13,1 C 13,1 C 0,8 C 86 % 67 % 0 % 1012,3 hPa 0,0 l/m 0,0 km/h (0 Bft) W-SW 247 0 min 10,0 C 13,1 C 0,0 km/h (0 Bft)
21.10.2017 20:55 12,2 C 14,3 C 13,3 C 13,1 C 13,1 C 0,9 C 86 % 67 % 0 % 1012,3 hPa 0,0 l/m 0,0 km/h (0 Bft) S 180 0 min 9,9 C 13,1 C 0,0 km/h (0 Bft)
21.10.2017 21:00 12,1 C 14,3 C 13,3 C 13,0 C 13,0 C 0,9 C 86 % 66 % 0 % 1012,3 hPa 0,0 l/m 0,0 km/h (0 Bft) S 180 0 min 9,8 C 13,0 C 0,0 km/h (0 Bft)
21.10.2017 21:05 12,1 C 14,3 C 13,2 C 13,1 C 13,1 C 1,0 C 86 % 66 % 0 % 1012,0 hPa 0,0 l/m 0,0 km/h (0 Bft) S 180 0 min 9,8 C 13,1 C 0,0 km/h (0 Bft)
21.10.2017 21:10 12,1 C 14,3 C 13,2 C 13,1 C 13,1 C 1,0 C 86 % 66 % 0 % 1012,0 hPa 0,0 l/m 0,0 km/h (0 Bft) SW 225 0 min 9,8 C 13,1 C 1,6 km/h (1 Bft)
21.10.2017 21:15 12,1 C 14,3 C 13,2 C 13,1 C 13,1 C 1,0 C 86 % 66 % 0 % 1012,0 hPa 0,0 l/m 0,2 km/h (0 Bft) W-SW 247 0 min 9,8 C 13,1 C 0,0 km/h (0 Bft)
21.10.2017 21:20 12,0 C 14,3 C 13,3 C 13,1 C 13,1 C 1,1 C 86 % 66 % 0 % 1012,0 hPa 0,0 l/m 0,2 km/h (0 Bft) W-SW 247 0 min 9,7 C 13,1 C 0,0 km/h (0 Bft)
21.10.2017 21:25 12,0 C 14,3 C 13,2 C 13,0 C 13,0 C 1,0 C 86 % 65 % 0 % 1012,1 hPa 0,0 l/m 0,0 km/h (0 Bft) W-SW 247 0 min 9,7 C 13,0 C 0,0 km/h (0 Bft)
21.10.2017 21:30 12,1 C 14,3 C 13,2 C 13,0 C 13,0 C 0,9 C 86 % 65 % 0 % 1012,1 hPa 0,0 l/m 0,0 km/h (0 Bft) W-SW 247 0 min 9,8 C 13,0 C 0,0 km/h (0 Bft)
21.10.2017 21:35 12,0 C 14,3 C 13,2 C 13,0 C 13,0 C 1,0 C 86 % 65 % 0 % 1012,1 hPa 0,0 l/m 0,0 km/h (0 Bft) W-SW 247 0 min 9,7 C 13,0 C 0,0 km/h (0 Bft)
21.10.2017 21:40 12,0 C 14,3 C 13,1 C 13,1 C 13,1 C 1,1 C 86 % 65 % 0 % 1012,1 hPa 0,0 l/m 0,0 km/h (0 Bft) S 180 0 min 9,7 C 13,1 C 0,0 km/h (0 Bft)
21.10.2017 21:45 12,0 C 14,4 C 13,1 C 13,1 C 13,1 C 1,1 C 87 % 65 % 0 % 1012,1 hPa 0,0 l/m 0,2 km/h (0 Bft) W-SW 247 0 min 9,9 C 13,1 C 2,6 km/h (1 Bft)
21.10.2017 21:50 12,0 C 14,4 C 13,1 C 13,1 C 13,1 C 1,1 C 87 % 65 % 0 % 1012,1 hPa 0,0 l/m 0,3 km/h (0 Bft) W 270 0 min 9,9 C 13,1 C 0,0 km/h (0 Bft)
21.10.2017 21:55 12,0 C 14,4 C 13,1 C 13,1 C 13,1 C 1,1 C 87 % 64 % 0 % 1012,1 hPa 0,0 l/m 0,3 km/h (0 Bft) W 270 0 min 9,9 C 13,1 C 0,0 km/h (0 Bft)
21.10.2017 22:00 12,0 C 14,4 C 13,1 C 13,1 C 13,1 C 1,1 C 87 % 64 % 0 % 1012,1 hPa 0,0 l/m 0,0 km/h (0 Bft) W 270 0 min 9,9 C 13,1 C 0,0 km/h (0 Bft)
21.10.2017 22:05 11,9 C 14,4 C 13,1 C 13,1 C 13,1 C 1,2 C 87 % 64 % 0 % 1012,1 hPa 0,0 l/m 0,0 km/h (0 Bft) W 270 0 min 9,8 C 13,1 C 0,0 km/h (0 Bft)
21.10.2017 22:10 11,9 C 14,4 C 13,0 C 13,1 C 13,1 C 1,2 C 87 % 64 % 0 % 1012,1 hPa 0,0 l/m 0,0 km/h (0 Bft) W 270 0 min 9,8 C 13,1 C 0,0 km/h (0 Bft)
21.10.2017 22:15 11,9 C 14,4 C 13,1 C 13,1 C 13,1 C 1,2 C 87 % 64 % 0 % 1012,1 hPa 0,0 l/m 0,0 km/h (0 Bft) W 270 0 min 9,8 C 13,1 C 0,0 km/h (0 Bft)
21.10.2017 22:20 11,9 C 14,4 C 13,1 C 13,1 C 13,1 C 1,2 C 87 % 64 % 0 % 1012,1 hPa 0,0 l/m 0,0 km/h (0 Bft) W 270 0 min 9,8 C 13,1 C 0,0 km/h (0 Bft)
21.10.2017 22:25 11,9 C 14,4 C 13,0 C 13,1 C 13,1 C 1,2 C 87 % 64 % 0 % 1011,6 hPa 0,0 l/m 0,0 km/h (0 Bft) W 270 0 min 9,8 C 13,1 C 0,0 km/h (0 Bft)
21.10.2017 22:30 11,8 C 14,4 C 13,0 C 13,1 C 13,1 C 1,3 C 87 % 64 % 0 % 1011,6 hPa 0,0 l/m 0,0 km/h (0 Bft) W 270 0 min 9,7 C 13,1 C 0,0 km/h (0 Bft)
21.10.2017 22:35 11,9 C 14,4 C 13,1 C 13,1 C 13,1 C 1,2 C 87 % 63 % 0 % 1011,6 hPa 0,0 l/m 0,0 km/h (0 Bft) W 270 0 min 9,8 C 13,1 C 0,0 km/h (0 Bft)
21.10.2017 22:40 11,9 C 14,4 C 13,1 C 13,1 C 13,1 C 1,2 C 87 % 63 % 0 % 1011,6 hPa 0,0 l/m 0,0 km/h (0 Bft) W 270 0 min 9,8 C 13,1 C 0,0 km/h (0 Bft)
21.10.2017 22:45 11,9 C 14,4 C 13,0 C 13,1 C 13,1 C 1,2 C 87 % 63 % 0 % 1011,6 hPa 0,0 l/m 0,0 km/h (0 Bft) W 270 0 min 9,8 C 13,1 C 0,0 km/h (0 Bft)
21.10.2017 22:50 11,8 C 14,4 C 12,9 C 13,1 C 13,1 C 1,3 C 87 % 63 % 0 % 1011,6 hPa 0,0 l/m 0,0 km/h (0 Bft) W 270 0 min 9,7 C 13,1 C 0,0 km/h (0 Bft)
21.10.2017 22:55 11,8 C 14,4 C 12,9 C 13,0 C 13,0 C 1,2 C 87 % 63 % 0 % 1011,6 hPa 0,0 l/m 0,0 km/h (0 Bft) W 270 0 min 9,7 C 13,0 C 0,0 km/h (0 Bft)
21.10.2017 23:00 11,9 C 14,4 C 12,8 C 12,9 C 12,9 C 1,0 C 87 % 63 % 0 % 1011,6 hPa 0,0 l/m 0,0 km/h (0 Bft) W 270 0 min 9,8 C 12,9 C 0,0 km/h (0 Bft)
21.10.2017 23:05 11,7 C 14,4 C 12,8 C 12,8 C 12,8 C 1,1 C 87 % 63 % 0 % 1011,6 hPa 0,0 l/m 0,0 km/h (0 Bft) W 270 0 min 9,6 C 12,8 C 0,0 km/h (0 Bft)
21.10.2017 23:10 11,7 C 14,4 C 12,8 C 12,8 C 12,8 C 1,1 C 87 % 63 % 0 % 1011,6 hPa 0,0 l/m 0,0 km/h (0 Bft) W 270 0 min 9,6 C 12,8 C 0,0 km/h (0 Bft)
21.10.2017 23:15 11,6 C 14,4 C 12,8 C 12,8 C 12,8 C 1,2 C 87 % 63 % 0 % 1011,6 hPa 0,0 l/m 0,0 km/h (0 Bft) W 270 0 min 9,5 C 12,8 C 0,0 km/h (0 Bft)
21.10.2017 23:20 11,6 C 14,4 C 12,8 C 12,8 C 12,8 C 1,2 C 87 % 63 % 0 % 1011,6 hPa 0,0 l/m 0,0 km/h (0 Bft) W 270 0 min 9,5 C 12,8 C 0,0 km/h (0 Bft)
21.10.2017 23:25 11,6 C 14,4 C 12,7 C 12,8 C 12,8 C 1,2 C 87 % 63 % 0 % 1011,9 hPa 0,0 l/m 0,0 km/h (0 Bft) W 270 0 min 9,5 C 12,8 C 0,0 km/h (0 Bft)
21.10.2017 23:30 11,7 C 14,4 C 12,7 C 12,8 C 12,8 C 1,1 C 87 % 63 % 0 % 1011,9 hPa 0,0 l/m 0,0 km/h (0 Bft) W 270 0 min 9,6 C 12,8 C 0,0 km/h (0 Bft)
21.10.2017 23:35 11,6 C 14,4 C 12,7 C 12,8 C 12,8 C 1,2 C 87 % 63 % 0 % 1011,9 hPa 0,0 l/m 0,0 km/h (0 Bft) W 270 0 min 9,5 C 12,8 C 0,0 km/h (0 Bft)
21.10.2017 23:40 11,7 C 14,4 C 12,7 C 12,9 C 12,9 C 1,2 C 87 % 63 % 0 % 1011,9 hPa 0,0 l/m 0,0 km/h (0 Bft) W 270 0 min 9,6 C 12,9 C 0,0 km/h (0 Bft)
21.10.2017 23:45 11,6 C 14,4 C 12,7 C 12,9 C 12,9 C 1,3 C 87 % 63 % 0 % 1011,6 hPa 0,0 l/m 0,0 km/h (0 Bft) W 270 0 min 9,5 C 12,9 C 0,0 km/h (0 Bft)
21.10.2017 23:50 11,6 C 14,4 C 12,7 C 12,9 C 12,9 C 1,3 C 87 % 63 % 0 % 1011,6 hPa 0,0 l/m 0,0 km/h (0 Bft) W 270 0 min 9,5 C 12,9 C 0,0 km/h (0 Bft)
21.10.2017 23:55 11,6 C 14,4 C 12,7 C 12,9 C 12,9 C 1,3 C 87 % 62 % 0 % 1011,6 hPa 0,0 l/m 0,0 km/h (0 Bft) W 270 0 min 9,5 C 12,9 C 0,0 km/h (0 Bft)
_ Min-Zeit 03:45 09:25 03:30 03:25 02:50 00:00 14:55 23:55 00:00 22:25 - 00:05 - - - 03:45 02:50 00:00
Minimum _ 8,0 C 12,9 C 8,2 C 8,0 C 7,6 C 0,0 C 64 % 62 % 0 % 1011,6 hPa - 0,0 km/h (0 Bft) - - - 5,6 C 7,6 C 0,0 km/h (0 Bft)
_ Max-Zeit 15:14 21:45 15:14 15:14 15:14 12:56 21:45 00:40 12:45 12:24 17:45 15:12 - - 12:56 17:11 15:14 12:56
Maximum _ 17,8 C 14,4 C 18,0 C 21,9 C 21,9 C 7,1 C 87 % 86 % 100 % 1015,7 hPa 0,7 l/m 6,1 km/h
W-SW (2 Bft)
- - 11 min 11,5 C 21,9 C 12,4 km/h
W-SW (3 Bft)
Durchschnitt _ 12,0 C 13,6 C 12,1 C 12,7 C 12,5 C 0,8 C 81 % 78 % 13 % 1014,1 hPa #3,4 l/m 0,7 km/h (0 Bft) W-SW - #1:25 h 8,7 C 12,5 C 1,2 km/h (1 Bft)
2017 www.wetterstation-wechselburg.de